Wetterdaten: Dienstag, 18.10.2022
Datum Zeit Temp. 2m Temp +5 cm Feuchte A. Luftdruck Regen Wind Richtung Richtung Sonnenschein UV Solar Taupunkt Windchill Windben
18.10.2022 00:00 14,6 C 13,9 C 94 % 1026,9 hPa 0,2 l/m 2,4 km/h (1 Bft) S 182 0 min 0,0 UV-I 0 W/m 13,6 C 14,6 C 4,8 km/h (1 Bft)
18.10.2022 00:03 14,6 C 13,9 C 94 % 1026,8 hPa 0,0 l/m 1,6 km/h (1 Bft) S 182 0 min 0,0 UV-I 0 W/m 13,6 C 14,6 C 4,8 km/h (1 Bft)
18.10.2022 00:06 14,6 C 13,9 C 94 % 1026,8 hPa 0,0 l/m 1,4 km/h (1 Bft) S 182 0 min 0,0 UV-I 0 W/m 13,6 C 14,6 C 3,2 km/h (1 Bft)
18.10.2022 00:09 14,6 C 13,3 C 94 % 1026,8 hPa 0,0 l/m 0,0 km/h (0 Bft) S 182 0 min 0,0 UV-I 0 W/m 13,6 C 14,6 C 1,6 km/h (1 Bft)
18.10.2022 00:12 14,6 C 13,3 C 94 % 1026,8 hPa 0,0 l/m 0,0 km/h (0 Bft) S 182 0 min 0,0 UV-I 0 W/m 13,6 C 14,6 C 0,0 km/h (0 Bft)
18.10.2022 00:15 14,5 C 13,3 C 94 % 1026,7 hPa 0,2 l/m 0,0 km/h (0 Bft) S 182 0 min 0,0 UV-I 0 W/m 13,5 C 14,5 C 0,0 km/h (0 Bft)
18.10.2022 00:18 14,4 C 13,3 C 94 % 1026,7 hPa 0,0 l/m 0,0 km/h (0 Bft) S 182 0 min 0,0 UV-I 0 W/m 13,4 C 14,4 C 0,0 km/h (0 Bft)
18.10.2022 00:21 14,4 C 13,3 C 94 % 1026,7 hPa 0,2 l/m 0,9 km/h (0 Bft) S 182 0 min 0,0 UV-I 0 W/m 13,4 C 14,4 C 1,6 km/h (1 Bft)
18.10.2022 00:24 14,4 C 13,3 C 94 % 1026,7 hPa 0,0 l/m 1,9 km/h (1 Bft) S 182 0 min 0,0 UV-I 0 W/m 13,4 C 14,4 C 3,2 km/h (1 Bft)
18.10.2022 00:27 14,3 C 13,3 C 94 % 1026,7 hPa 0,2 l/m 1,1 km/h (1 Bft) S 181 0 min 0,0 UV-I 0 W/m 13,3 C 14,3 C 3,2 km/h (1 Bft)
18.10.2022 00:30 14,4 C 13,3 C 94 % 1026,7 hPa 0,0 l/m 0,5 km/h (0 Bft) S 182 0 min 0,0 UV-I 0 W/m 13,4 C 14,4 C 1,6 km/h (1 Bft)
18.10.2022 00:33 14,3 C 13,3 C 94 % 1026,6 hPa 0,2 l/m 1,4 km/h (1 Bft) S 182 0 min 0,0 UV-I 0 W/m 13,3 C 14,3 C 1,6 km/h (1 Bft)
18.10.2022 00:36 14,3 C 13,3 C 94 % 1026,5 hPa 0,0 l/m 1,6 km/h (1 Bft) S 182 0 min 0,0 UV-I 0 W/m 13,3 C 14,3 C 3,2 km/h (1 Bft)
18.10.2022 00:39 14,4 C 13,3 C 94 % 1026,5 hPa 0,0 l/m 1,7 km/h (1 Bft) S 182 0 min 0,0 UV-I 0 W/m 13,4 C 14,4 C 3,2 km/h (1 Bft)
18.10.2022 00:42 14,4 C 13,3 C 94 % 1026,6 hPa 0,2 l/m 1,8 km/h (1 Bft) S 182 0 min 0,0 UV-I 0 W/m 13,4 C 14,4 C 3,2 km/h (1 Bft)
18.10.2022 00:45 14,3 C 13,3 C 94 % 1026,6 hPa 0,0 l/m 1,9 km/h (1 Bft) S 182 0 min 0,0 UV-I 0 W/m 13,3 C 14,3 C 3,2 km/h (1 Bft)
18.10.2022 00:48 14,3 C 13,3 C 94 % 1026,7 hPa 0,0 l/m 1,4 km/h (1 Bft) S 182 0 min 0,0 UV-I 0 W/m 13,3 C 14,3 C 3,2 km/h (1 Bft)
18.10.2022 00:51 14,4 C 13,3 C 94 % 1026,7 hPa 0,0 l/m 1,2 km/h (1 Bft) S 182 0 min 0,0 UV-I 0 W/m 13,4 C 14,4 C 3,2 km/h (1 Bft)
18.10.2022 00:54 14,4 C 13,3 C 94 % 1026,7 hPa 0,2 l/m 0,2 km/h (0 Bft) S 182 0 min 0,0 UV-I 0 W/m 13,4 C 14,4 C 1,6 km/h (1 Bft)
18.10.2022 00:57 14,3 C 13,3 C 94 % 1026,6 hPa 0,0 l/m 0,0 km/h (0 Bft) S 182 0 min 0,0 UV-I 0 W/m 13,3 C 14,3 C 1,6 km/h (1 Bft)
18.10.2022 01:00 14,3 C 13,3 C 94 % 1026,5 hPa 0,2 l/m 0,0 km/h (0 Bft) S 182 0 min 0,0 UV-I 0 W/m 13,3 C 14,3 C 0,0 km/h (0 Bft)
18.10.2022 01:03 14,3 C 13,3 C 94 % 1026,6 hPa 0,0 l/m 0,0 km/h (0 Bft) S 182 0 min 0,0 UV-I 0 W/m 13,3 C 14,3 C 0,0 km/h (0 Bft)
18.10.2022 01:06 14,2 C 13,3 C 94 % 1026,7 hPa 0,2 l/m 0,0 km/h (0 Bft) S 182 0 min 0,0 UV-I 0 W/m 13,2 C 14,2 C 0,0 km/h (0 Bft)
18.10.2022 01:09 14,2 C 13,3 C 94 % 1026,8 hPa 0,0 l/m 0,2 km/h (0 Bft) S 182 0 min 0,0 UV-I 0 W/m 13,2 C 14,2 C 1,6 km/h (1 Bft)
18.10.2022 01:12 14,1 C 13,3 C 94 % 1026,7 hPa 0,2 l/m 0,9 km/h (0 Bft) S 182 0 min 0,0 UV-I 0 W/m 13,1 C 14,1 C 3,2 km/h (1 Bft)
18.10.2022 01:15 14,1 C 13,3 C 94 % 1026,8 hPa 0,0 l/m 0,4 km/h (0 Bft) S 182 0 min 0,0 UV-I 0 W/m 13,1 C 14,1 C 1,6 km/h (1 Bft)
18.10.2022 01:18 14,1 C 13,3 C 94 % 1026,8 hPa 0,2 l/m 0,0 km/h (0 Bft) S 182 0 min 0,0 UV-I 0 W/m 13,1 C 14,1 C 0,0 km/h (0 Bft)
18.10.2022 01:21 14,2 C 13,3 C 94 % 1026,8 hPa 0,0 l/m 0,0 km/h (0 Bft) S 182 0 min 0,0 UV-I 0 W/m 13,2 C 14,2 C 0,0 km/h (0 Bft)
18.10.2022 01:24 14,2 C 13,3 C 94 % 1026,9 hPa 0,2 l/m 0,0 km/h (0 Bft) S 182 0 min 0,0 UV-I 0 W/m 13,2 C 14,2 C 0,0 km/h (0 Bft)
18.10.2022 01:27 14,1 C 13,3 C 94 % 1026,9 hPa 0,0 l/m 0,0 km/h (0 Bft) S 182 0 min 0,0 UV-I 0 W/m 13,1 C 14,1 C 0,0 km/h (0 Bft)
18.10.2022 01:30 14,1 C 13,3 C 94 % 1026,9 hPa 0,2 l/m 0,0 km/h (0 Bft) S 182 0 min 0,0 UV-I 0 W/m 13,1 C 14,1 C 0,0 km/h (0 Bft)
18.10.2022 01:33 13,9 C 13,3 C 94 % 1026,8 hPa 0,0 l/m 0,0 km/h (0 Bft) S 182 0 min 0,0 UV-I 0 W/m 12,9 C 13,9 C 0,0 km/h (0 Bft)
18.10.2022 01:36 13,9 C 13,3 C 94 % 1026,8 hPa 0,2 l/m 0,0 km/h (0 Bft) S 182 0 min 0,0 UV-I 0 W/m 12,9 C 13,9 C 0,0 km/h (0 Bft)
18.10.2022 01:39 13,9 C 12,8 C 94 % 1026,6 hPa 0,0 l/m 0,0 km/h (0 Bft) S 182 0 min 0,0 UV-I 0 W/m 12,9 C 13,9 C 0,0 km/h (0 Bft)
18.10.2022 01:42 13,9 C 12,8 C 94 % 1026,6 hPa 0,0 l/m 0,0 km/h (0 Bft) S 182 0 min 0,0 UV-I 0 W/m 12,9 C 13,9 C 0,0 km/h (0 Bft)
18.10.2022 01:45 13,9 C 12,8 C 94 % 1026,5 hPa 0,2 l/m 0,0 km/h (0 Bft) S 182 0 min 0,0 UV-I 0 W/m 12,9 C 13,9 C 0,0 km/h (0 Bft)
18.10.2022 01:48 13,9 C 12,8 C 94 % 1026,5 hPa 0,0 l/m 0,0 km/h (0 Bft) S 182 0 min 0,0 UV-I 0 W/m 12,9 C 13,9 C 0,0 km/h (0 Bft)
18.10.2022 01:51 13,9 C 12,8 C 94 % 1026,5 hPa 0,2 l/m 0,0 km/h (0 Bft) S 182 0 min 0,0 UV-I 0 W/m 12,9 C 13,9 C 0,0 km/h (0 Bft)
18.10.2022 01:54 13,9 C 12,8 C 94 % 1026,5 hPa 0,2 l/m 0,0 km/h (0 Bft) S 182 0 min 0,0 UV-I 0 W/m 12,9 C 13,9 C 0,0 km/h (0 Bft)
18.10.2022 01:57 14,0 C 13,3 C 94 % 1026,5 hPa 0,0 l/m 0,0 km/h (0 Bft) S 182 0 min 0,0 UV-I 0 W/m 13,0 C 14,0 C 0,0 km/h (0 Bft)
18.10.2022 02:00 14,1 C 13,3 C 94 % 1026,5 hPa 0,2 l/m 0,0 km/h (0 Bft) S 182 0 min 0,0 UV-I 0 W/m 13,1 C 14,1 C 0,0 km/h (0 Bft)
18.10.2022 02:03 14,1 C 13,3 C 94 % 1026,5 hPa 0,0 l/m 0,0 km/h (0 Bft) S 182 0 min 0,0 UV-I 0 W/m 13,1 C 14,1 C 0,0 km/h (0 Bft)
18.10.2022 02:06 14,1 C 13,3 C 94 % 1026,4 hPa 0,2 l/m 0,0 km/h (0 Bft) S 182 0 min 0,0 UV-I 0 W/m 13,1 C 14,1 C 0,0 km/h (0 Bft)
18.10.2022 02:09 14,1 C 13,3 C 94 % 1026,4 hPa 0,0 l/m 0,0 km/h (0 Bft) S 182 0 min 0,0 UV-I 0 W/m 13,1 C 14,1 C 0,0 km/h (0 Bft)
18.10.2022 02:12 14,0 C 12,8 C 94 % 1026,3 hPa 0,0 l/m 0,0 km/h (0 Bft) S 182 0 min 0,0 UV-I 0 W/m 13,0 C 14,0 C 0,0 km/h (0 Bft)
18.10.2022 02:15 14,0 C 12,8 C 94 % 1026,2 hPa 0,2 l/m 0,0 km/h (0 Bft) S 182 0 min 0,0 UV-I 0 W/m 13,0 C 14,0 C 0,0 km/h (0 Bft)
18.10.2022 02:18 14,0 C 12,8 C 94 % 1026,2 hPa 0,0 l/m 0,0 km/h (0 Bft) S 182 0 min 0,0 UV-I 0 W/m 13,0 C 14,0 C 0,0 km/h (0 Bft)
18.10.2022 02:21 13,9 C 12,8 C 94 % 1026,1 hPa 0,0 l/m 0,0 km/h (0 Bft) S 182 0 min 0,0 UV-I 0 W/m 12,9 C 13,9 C 0,0 km/h (0 Bft)
18.10.2022 02:24 13,9 C 12,8 C 94 % 1026,2 hPa 0,0 l/m 0,0 km/h (0 Bft) S 182 0 min 0,0 UV-I 0 W/m 12,9 C 13,9 C 0,0 km/h (0 Bft)
18.10.2022 02:27 13,8 C 12,8 C 95 % 1026,2 hPa 0,0 l/m 0,0 km/h (0 Bft) S 182 0 min 0,0 UV-I 0 W/m 13,0 C 13,8 C 0,0 km/h (0 Bft)
18.10.2022 02:30 13,8 C 12,8 C 95 % 1026,3 hPa 0,0 l/m 0,0 km/h (0 Bft) S 182 0 min 0,0 UV-I 0 W/m 13,0 C 13,8 C 0,0 km/h (0 Bft)
18.10.2022 02:33 13,9 C 12,8 C 95 % 1026,2 hPa 0,2 l/m 0,0 km/h (0 Bft) S 182 0 min 0,0 UV-I 0 W/m 13,1 C 13,9 C 0,0 km/h (0 Bft)
18.10.2022 02:36 13,9 C 12,8 C 95 % 1026,2 hPa 0,0 l/m 0,0 km/h (0 Bft) S 182 0 min 0,0 UV-I 0 W/m 13,1 C 13,9 C 0,0 km/h (0 Bft)
18.10.2022 02:39 13,9 C 12,8 C 95 % 1026,1 hPa 0,0 l/m 0,9 km/h (0 Bft) S 182 0 min 0,0 UV-I 0 W/m 13,1 C 13,9 C 3,2 km/h (1 Bft)
18.10.2022 02:42 13,9 C 12,8 C 95 % 1026,0 hPa 0,0 l/m 3,0 km/h (1 Bft) S 182 0 min 0,0 UV-I 0 W/m 13,1 C 13,9 C 3,2 km/h (1 Bft)
18.10.2022 02:45 13,8 C 12,8 C 95 % 1025,9 hPa 0,0 l/m 2,5 km/h (1 Bft) S 182 0 min 0,0 UV-I 0 W/m 13,0 C 13,8 C 3,2 km/h (1 Bft)
18.10.2022 02:48 13,8 C 12,8 C 95 % 1026,0 hPa 0,0 l/m 2,6 km/h (1 Bft) S 182 0 min 0,0 UV-I 0 W/m 13,0 C 13,8 C 3,2 km/h (1 Bft)
18.10.2022 02:51 13,8 C 12,8 C 95 % 1025,9 hPa 0,0 l/m 2,4 km/h (1 Bft) S 182 0 min 0,0 UV-I 0 W/m 13,0 C 13,8 C 3,2 km/h (1 Bft)
18.10.2022 02:54 13,8 C 12,8 C 95 % 1026,0 hPa 0,0 l/m 2,3 km/h (1 Bft) S 182 0 min 0,0 UV-I 0 W/m 13,0 C 13,8 C 3,2 km/h (1 Bft)
18.10.2022 02:57 13,7 C 12,8 C 94 % 1026,0 hPa 0,0 l/m 0,4 km/h (0 Bft) S 182 0 min 0,0 UV-I 0 W/m 12,8 C 13,7 C 1,6 km/h (1 Bft)
18.10.2022 03:00 13,7 C 12,8 C 94 % 1026,2 hPa 0,0 l/m 0,0 km/h (0 Bft) S 182 0 min 0,0 UV-I 0 W/m 12,8 C 13,7 C 0,0 km/h (0 Bft)
18.10.2022 03:03 13,7 C 12,8 C 95 % 1026,2 hPa 0,0 l/m 0,0 km/h (0 Bft) S 182 0 min 0,0 UV-I 0 W/m 12,9 C 13,7 C 0,0 km/h (0 Bft)
18.10.2022 03:06 13,7 C 12,8 C 94 % 1026,1 hPa 0,0 l/m 0,0 km/h (0 Bft) S 182 0 min 0,0 UV-I 0 W/m 12,8 C 13,7 C 0,0 km/h (0 Bft)
18.10.2022 03:09 13,6 C 12,8 C 95 % 1026,0 hPa 0,0 l/m 0,0 km/h (0 Bft) S 182 0 min 0,0 UV-I 0 W/m 12,8 C 13,6 C 0,0 km/h (0 Bft)
18.10.2022 03:12 13,7 C 12,8 C 94 % 1026,1 hPa 0,0 l/m 0,0 km/h (0 Bft) S 182 0 min 0,0 UV-I 0 W/m 12,8 C 13,7 C 0,0 km/h (0 Bft)
18.10.2022 03:15 13,7 C 12,8 C 95 % 1026,2 hPa 0,2 l/m 0,0 km/h (0 Bft) S 182 0 min 0,0 UV-I 0 W/m 12,9 C 13,7 C 0,0 km/h (0 Bft)
18.10.2022 03:18 13,6 C 12,8 C 95 % 1026,1 hPa 0,0 l/m 0,0 km/h (0 Bft) S 182 0 min 0,0 UV-I 0 W/m 12,8 C 13,6 C 0,0 km/h (0 Bft)
18.10.2022 03:21 13,6 C 12,8 C 95 % 1026,1 hPa 0,0 l/m 0,0 km/h (0 Bft) S 182 0 min 0,0 UV-I 0 W/m 12,8 C 13,6 C 0,0 km/h (0 Bft)
18.10.2022 03:24 13,6 C 12,8 C 95 % 1026,1 hPa 0,0 l/m 0,0 km/h (0 Bft) S 182 0 min 0,0 UV-I 0 W/m 12,8 C 13,6 C 0,0 km/h (0 Bft)
18.10.2022 03:27 13,6 C 12,8 C 95 % 1026,1 hPa 0,0 l/m 0,0 km/h (0 Bft) S 182 0 min 0,0 UV-I 0 W/m 12,8 C 13,6 C 0,0 km/h (0 Bft)
18.10.2022 03:30 13,6 C 12,8 C 95 % 1026,2 hPa 0,0 l/m 0,0 km/h (0 Bft) S 182 0 min 0,0 UV-I 0 W/m 12,8 C 13,6 C 0,0 km/h (0 Bft)
18.10.2022 03:33 13,6 C 12,8 C 95 % 1026,1 hPa 0,0 l/m 0,1 km/h (0 Bft) S 182 0 min 0,0 UV-I 0 W/m 12,8 C 13,6 C 1,6 km/h (1 Bft)
18.10.2022 03:36 13,5 C 12,8 C 95 % 1026,1 hPa 0,0 l/m 0,0 km/h (0 Bft) S 182 0 min 0,0 UV-I 0 W/m 12,7 C 13,5 C 1,6 km/h (1 Bft)
18.10.2022 03:39 13,6 C 12,8 C 95 % 1026,4 hPa 0,2 l/m 0,0 km/h (0 Bft) S 182 0 min 0,0 UV-I 0 W/m 12,8 C 13,6 C 1,6 km/h (1 Bft)
18.10.2022 03:42 13,6 C 12,8 C 95 % 1026,3 hPa 0,0 l/m 0,0 km/h (0 Bft) S 182 0 min 0,0 UV-I 0 W/m 12,8 C 13,6 C 0,0 km/h (0 Bft)
18.10.2022 03:45 13,6 C 12,8 C 95 % 1026,3 hPa 0,0 l/m 0,0 km/h (0 Bft) S 182 0 min 0,0 UV-I 0 W/m 12,8 C 13,6 C 0,0 km/h (0 Bft)
18.10.2022 03:48 13,6 C 12,8 C 95 % 1026,3 hPa 0,0 l/m 0,0 km/h (0 Bft) S 182 0 min 0,0 UV-I 0 W/m 12,8 C 13,6 C 0,0 km/h (0 Bft)
18.10.2022 03:51 13,5 C 12,8 C 95 % 1026,3 hPa 0,2 l/m 0,0 km/h (0 Bft) S 182 0 min 0,0 UV-I 0 W/m 12,7 C 13,5 C 0,0 km/h (0 Bft)
18.10.2022 03:54 13,6 C 12,8 C 95 % 1026,2 hPa 0,4 l/m 0,0 km/h (0 Bft) S 182 0 min 0,0 UV-I 0 W/m 12,8 C 13,6 C 0,0 km/h (0 Bft)
18.10.2022 03:57 13,6 C 12,8 C 95 % 1026,4 hPa 0,2 l/m 1,3 km/h (1 Bft) S 182 0 min 0,0 UV-I 0 W/m 12,8 C 13,6 C 4,8 km/h (1 Bft)
18.10.2022 04:00 13,6 C 13,3 C 95 % 1026,5 hPa 0,4 l/m 3,0 km/h (1 Bft) S 182 0 min 0,0 UV-I 0 W/m 12,8 C 13,6 C 4,8 km/h (1 Bft)
18.10.2022 04:03 13,6 C 13,3 C 95 % 1026,5 hPa 0,6 l/m 3,1 km/h (1 Bft) S 182 0 min 0,0 UV-I 0 W/m 12,8 C 13,6 C 4,8 km/h (1 Bft)
18.10.2022 04:06 13,6 C 13,3 C 95 % 1026,4 hPa 0,6 l/m 0,8 km/h (0 Bft) S 182 0 min 0,0 UV-I 0 W/m 12,8 C 13,6 C 3,2 km/h (1 Bft)
18.10.2022 04:09 13,6 C 13,3 C 95 % 1026,4 hPa 0,4 l/m 0,0 km/h (0 Bft) S 182 0 min 0,0 UV-I 0 W/m 12,8 C 13,6 C 0,0 km/h (0 Bft)
18.10.2022 04:12 13,6 C 13,3 C 95 % 1026,4 hPa 0,2 l/m 0,0 km/h (0 Bft) S 182 0 min 0,0 UV-I 0 W/m 12,8 C 13,6 C 0,0 km/h (0 Bft)
18.10.2022 04:15 13,6 C 13,3 C 95 % 1026,4 hPa 0,4 l/m 0,0 km/h (0 Bft) S 182 0 min 0,0 UV-I 0 W/m 12,8 C 13,6 C 1,6 km/h (1 Bft)
18.10.2022 04:18 13,6 C 12,8 C 95 % 1026,3 hPa 0,2 l/m 0,0 km/h (0 Bft) S 182 0 min 0,0 UV-I 0 W/m 12,8 C 13,6 C 0,0 km/h (0 Bft)
18.10.2022 04:21 13,6 C 12,8 C 95 % 1026,2 hPa 0,2 l/m 0,6 km/h (0 Bft) S 182 0 min 0,0 UV-I 0 W/m 12,8 C 13,6 C 3,2 km/h (1 Bft)
18.10.2022 04:24 13,6 C 12,8 C 95 % 1026,2 hPa 0,0 l/m 1,3 km/h (1 Bft) S 182 0 min 0,0 UV-I 0 W/m 12,8 C 13,6 C 3,2 km/h (1 Bft)
18.10.2022 04:27 13,5 C 12,8 C 95 % 1026,2 hPa 0,2 l/m 0,7 km/h (0 Bft) S 182 0 min 0,0 UV-I 0 W/m 12,7 C 13,5 C 1,6 km/h (1 Bft)
18.10.2022 04:30 13,5 C 12,8 C 95 % 1026,0 hPa 0,0 l/m 1,1 km/h (1 Bft) S 182 0 min 0,0 UV-I 0 W/m 12,7 C 13,5 C 3,2 km/h (1 Bft)
18.10.2022 04:33 13,5 C 12,8 C 95 % 1025,9 hPa 0,2 l/m 3,3 km/h (1 Bft) S 174 0 min 0,0 UV-I 0 W/m 12,7 C 13,5 C 4,8 km/h (1 Bft)
18.10.2022 04:36 13,4 C 12,8 C 95 % 1025,8 hPa 0,0 l/m 2,8 km/h (1 Bft) S 169 0 min 0,0 UV-I 0 W/m 12,6 C 13,4 C 6,4 km/h (2 Bft)
18.10.2022 04:39 13,5 C 12,8 C 95 % 1025,8 hPa 0,0 l/m 2,7 km/h (1 Bft) S 169 0 min 0,0 UV-I 0 W/m 12,7 C 13,5 C 6,4 km/h (2 Bft)
18.10.2022 04:42 13,4 C 12,8 C 95 % 1025,8 hPa 0,0 l/m 0,9 km/h (0 Bft) S 169 0 min 0,0 UV-I 0 W/m 12,6 C 13,4 C 3,2 km/h (1 Bft)
18.10.2022 04:45 13,4 C 12,8 C 95 % 1025,9 hPa 0,0 l/m 0,4 km/h (0 Bft) S 169 0 min 0,0 UV-I 0 W/m 12,6 C 13,4 C 1,6 km/h (1 Bft)
18.10.2022 04:48 13,4 C 12,8 C 95 % 1025,8 hPa 0,0 l/m 1,0 km/h (0 Bft) S 169 0 min 0,0 UV-I 0 W/m 12,6 C 13,4 C 1,6 km/h (1 Bft)
18.10.2022 04:51 13,3 C 12,8 C 95 % 1025,9 hPa 0,2 l/m 2,7 km/h (1 Bft) S 169 0 min 0,0 UV-I 0 W/m 12,5 C 13,3 C 6,4 km/h (2 Bft)
18.10.2022 04:54 13,4 C 12,8 C 95 % 1025,8 hPa 0,0 l/m 2,6 km/h (1 Bft) S 169 0 min 0,0 UV-I 0 W/m 12,6 C 13,4 C 6,4 km/h (2 Bft)
18.10.2022 04:57 13,4 C 12,8 C 95 % 1025,8 hPa 0,0 l/m 3,7 km/h (1 Bft) S-SO 167 0 min 0,0 UV-I 0 W/m 12,6 C 13,4 C 6,4 km/h (2 Bft)
18.10.2022 05:00 13,4 C 12,8 C 95 % 1025,9 hPa 0,0 l/m 3,2 km/h (1 Bft) S-SO 167 0 min 0,0 UV-I 0 W/m 12,6 C 13,4 C 4,8 km/h (1 Bft)
18.10.2022 05:03 13,4 C 12,8 C 95 % 1026,1 hPa 0,0 l/m 2,6 km/h (1 Bft) S-SO 168 0 min 0,0 UV-I 0 W/m 12,6 C 13,4 C 6,4 km/h (2 Bft)
18.10.2022 05:06 13,4 C 12,8 C 95 % 1026,2 hPa 0,0 l/m 5,1 km/h (1 Bft) W-SW 252 0 min 0,0 UV-I 0 W/m 12,6 C 13,4 C 6,4 km/h (2 Bft)
18.10.2022 05:09 13,4 C 12,8 C 95 % 1026,2 hPa 0,0 l/m 3,3 km/h (1 Bft) W-SW 252 0 min 0,0 UV-I 0 W/m 12,6 C 13,4 C 4,8 km/h (1 Bft)
18.10.2022 05:12 13,5 C 12,8 C 95 % 1026,2 hPa 0,0 l/m 2,9 km/h (1 Bft) W-SW 252 0 min 0,0 UV-I 0 W/m 12,7 C 13,5 C 4,8 km/h (1 Bft)
18.10.2022 05:15 13,5 C 12,8 C 95 % 1026,1 hPa 0,2 l/m 1,6 km/h (1 Bft) NW 306 0 min 0,0 UV-I 0 W/m 12,7 C 13,5 C 4,8 km/h (1 Bft)
18.10.2022 05:18 13,5 C 12,8 C 95 % 1026,0 hPa 0,0 l/m 4,4 km/h (1 Bft) N 351 0 min 0,0 UV-I 0 W/m 12,7 C 13,5 C 6,4 km/h (2 Bft)
18.10.2022 05:21 13,5 C 12,8 C 95 % 1026,2 hPa 0,0 l/m 3,2 km/h (1 Bft) N 351 0 min 0,0 UV-I 0 W/m 12,7 C 13,5 C 4,8 km/h (1 Bft)
18.10.2022 05:24 13,5 C 12,8 C 95 % 1026,1 hPa 0,0 l/m 2,3 km/h (1 Bft) N 351 0 min 0,0 UV-I 0 W/m 12,7 C 13,5 C 3,2 km/h (1 Bft)
18.10.2022 05:27 13,4 C 12,8 C 95 % 1026,1 hPa 0,0 l/m 1,8 km/h (1 Bft) N 351 0 min 0,0 UV-I 0 W/m 12,6 C 13,4 C 3,2 km/h (1 Bft)
18.10.2022 05:30 13,5 C 12,8 C 95 % 1026,1 hPa 0,0 l/m 3,3 km/h (1 Bft) N 350 0 min 0,0 UV-I 0 W/m 12,7 C 13,5 C 4,8 km/h (1 Bft)
18.10.2022 05:33 13,5 C 12,8 C 95 % 1026,1 hPa 0,0 l/m 2,0 km/h (1 Bft) N 350 0 min 0,0 UV-I 0 W/m 12,7 C 13,5 C 3,2 km/h (1 Bft)
18.10.2022 05:36 13,5 C 12,8 C 95 % 1026,1 hPa 0,2 l/m 0,0 km/h (0 Bft) N 350 0 min 0,0 UV-I 0 W/m 12,7 C 13,5 C 1,6 km/h (1 Bft)
18.10.2022 05:39 13,5 C 12,8 C 95 % 1026,2 hPa 0,0 l/m 0,7 km/h (0 Bft) N 350 0 min 0,0 UV-I 0 W/m 12,7 C 13,5 C 1,6 km/h (1 Bft)
18.10.2022 05:42 13,5 C 12,8 C 95 % 1026,1 hPa 0,2 l/m 0,6 km/h (0 Bft) N 350 0 min 0,0 UV-I 0 W/m 12,7 C 13,5 C 1,6 km/h (1 Bft)
18.10.2022 05:45 13,4 C 12,8 C 95 % 1026,2 hPa 0,2 l/m 0,5 km/h (0 Bft) N 350 0 min 0,0 UV-I 0 W/m 12,6 C 13,4 C 1,6 km/h (1 Bft)
18.10.2022 05:48 13,4 C 12,8 C 95 % 1026,2 hPa 0,0 l/m 0,0 km/h (0 Bft) N 350 0 min 0,0 UV-I 0 W/m 12,6 C 13,4 C 0,0 km/h (0 Bft)
18.10.2022 05:51 13,4 C 12,8 C 95 % 1026,1 hPa 0,0 l/m 0,0 km/h (0 Bft) N 350 0 min 0,0 UV-I 0 W/m 12,6 C 13,4 C 0,0 km/h (0 Bft)
18.10.2022 05:54 13,4 C 12,8 C 95 % 1026,1 hPa 0,0 l/m 0,0 km/h (0 Bft) N 350 0 min 0,0 UV-I 0 W/m 12,6 C 13,4 C 0,0 km/h (0 Bft)
18.10.2022 05:57 13,4 C 12,8 C 95 % 1026,2 hPa 0,0 l/m 0,0 km/h (0 Bft) N 350 0 min 0,0 UV-I 0 W/m 12,6 C 13,4 C 0,0 km/h (0 Bft)
18.10.2022 06:00 13,4 C 12,8 C 95 % 1026,3 hPa 0,0 l/m 0,0 km/h (0 Bft) N 350 0 min 0,0 UV-I 0 W/m 12,6 C 13,4 C 0,0 km/h (0 Bft)
18.10.2022 06:03 13,4 C 12,8 C 95 % 1026,2 hPa 0,2 l/m 0,0 km/h (0 Bft) N 350 0 min 0,0 UV-I 0 W/m 12,6 C 13,4 C 0,0 km/h (0 Bft)
18.10.2022 06:06 13,4 C 12,8 C 95 % 1026,1 hPa 0,0 l/m 0,7 km/h (0 Bft) N 350 0 min 0,0 UV-I 0 W/m 12,6 C 13,4 C 3,2 km/h (1 Bft)
18.10.2022 06:09 13,4 C 12,8 C 95 % 1026,1 hPa 0,0 l/m 3,6 km/h (1 Bft) N 350 0 min 0,0 UV-I 0 W/m 12,6 C 13,4 C 6,4 km/h (2 Bft)
18.10.2022 06:12 13,4 C 12,8 C 95 % 1026,1 hPa 0,0 l/m 1,9 km/h (1 Bft) N 350 0 min 0,0 UV-I 0 W/m 12,6 C 13,4 C 4,8 km/h (1 Bft)
18.10.2022 06:15 13,4 C 12,8 C 95 % 1026,1 hPa 0,0 l/m 0,1 km/h (0 Bft) N 350 0 min 0,0 UV-I 0 W/m 12,6 C 13,4 C 1,6 km/h (1 Bft)
18.10.2022 06:18 13,3 C 12,8 C 95 % 1026,2 hPa 0,0 l/m 0,1 km/h (0 Bft) N 350 0 min 0,0 UV-I 0 W/m 12,5 C 13,3 C 1,6 km/h (1 Bft)
18.10.2022 06:21 13,3 C 12,8 C 95 % 1026,4 hPa 0,0 l/m 1,2 km/h (1 Bft) N 350 0 min 0,0 UV-I 0 W/m 12,5 C 13,3 C 1,6 km/h (1 Bft)
18.10.2022 06:24 13,3 C 12,8 C 95 % 1026,3 hPa 0,0 l/m 0,9 km/h (0 Bft) N 350 0 min 0,0 UV-I 0 W/m 12,5 C 13,3 C 1,6 km/h (1 Bft)
18.10.2022 06:27 13,3 C 12,8 C 95 % 1026,2 hPa 0,0 l/m 0,0 km/h (0 Bft) N 350 0 min 0,0 UV-I 0 W/m 12,5 C 13,3 C 0,0 km/h (0 Bft)
18.10.2022 06:30 13,3 C 12,8 C 95 % 1026,2 hPa 0,0 l/m 0,0 km/h (0 Bft) N 350 0 min 0,0 UV-I 0 W/m 12,5 C 13,3 C 0,0 km/h (0 Bft)
18.10.2022 06:33 13,3 C 12,8 C 95 % 1026,2 hPa 0,0 l/m 0,0 km/h (0 Bft) N 350 0 min 0,0 UV-I 0 W/m 12,5 C 13,3 C 0,0 km/h (0 Bft)
18.10.2022 06:36 13,3 C 12,8 C 95 % 1026,2 hPa 0,0 l/m 0,2 km/h (0 Bft) N 350 0 min 0,0 UV-I 0 W/m 12,5 C 13,3 C 1,6 km/h (1 Bft)
18.10.2022 06:39 13,3 C 12,8 C 95 % 1026,2 hPa 0,0 l/m 0,0 km/h (0 Bft) N 350 0 min 0,0 UV-I 0 W/m 12,5 C 13,3 C 1,6 km/h (1 Bft)
18.10.2022 06:42 13,3 C 12,8 C 95 % 1026,2 hPa 0,0 l/m 0,0 km/h (0 Bft) N 350 0 min 0,0 UV-I 0 W/m 12,5 C 13,3 C 0,0 km/h (0 Bft)
18.10.2022 06:45 13,3 C 12,8 C 95 % 1026,2 hPa 0,2 l/m 0,0 km/h (0 Bft) N 350 0 min 0,0 UV-I 0 W/m 12,5 C 13,3 C 0,0 km/h (0 Bft)
18.10.2022 06:48 13,3 C 12,8 C 95 % 1026,3 hPa 0,0 l/m 0,0 km/h (0 Bft) N 350 0 min 0,0 UV-I 0 W/m 12,5 C 13,3 C 0,0 km/h (0 Bft)
18.10.2022 06:51 13,3 C 12,8 C 95 % 1026,3 hPa 0,0 l/m 0,0 km/h (0 Bft) N 350 0 min 0,0 UV-I 0 W/m 12,5 C 13,3 C 0,0 km/h (0 Bft)
18.10.2022 06:54 13,3 C 12,8 C 95 % 1026,3 hPa 0,0 l/m 0,1 km/h (0 Bft) N 350 0 min 0,0 UV-I 0 W/m 12,5 C 13,3 C 1,6 km/h (1 Bft)
18.10.2022 06:57 13,3 C 12,8 C 95 % 1026,3 hPa 0,0 l/m 0,0 km/h (0 Bft) N 350 0 min 0,0 UV-I 0 W/m 12,5 C 13,3 C 0,0 km/h (0 Bft)
18.10.2022 07:00 13,4 C 12,8 C 95 % 1026,3 hPa 0,0 l/m 0,0 km/h (0 Bft) N 350 0 min 0,0 UV-I 0 W/m 12,6 C 13,4 C 1,6 km/h (1 Bft)
18.10.2022 07:01 13,3 C 12,8 C 95 % 1026,3 hPa 0,0 l/m 1,6 km/h (1 Bft) N 360 0 min 0,0 UV-I 0 W/m 12,5 C 13,3 C 1,6 km/h (1 Bft)
18.10.2022 07:03 13,4 C 12,8 C 95 % 1026,4 hPa 0,0 l/m 0,6 km/h (0 Bft) N 350 0 min 0,0 UV-I 0 W/m 12,6 C 13,4 C 1,6 km/h (1 Bft)
18.10.2022 07:06 13,4 C 12,8 C 95 % 1026,4 hPa 0,0 l/m 0,2 km/h (0 Bft) N 350 0 min 0,0 UV-I 0 W/m 12,6 C 13,4 C 1,6 km/h (1 Bft)
18.10.2022 07:09 13,4 C 12,8 C 95 % 1026,5 hPa 0,0 l/m 0,1 km/h (0 Bft) N 350 0 min 0,0 UV-I 0 W/m 12,6 C 13,4 C 1,6 km/h (1 Bft)
18.10.2022 07:12 13,4 C 12,8 C 95 % 1026,6 hPa 0,0 l/m 0,3 km/h (0 Bft) N 350 0 min 0,0 UV-I 0 W/m 12,6 C 13,4 C 3,2 km/h (1 Bft)
18.10.2022 07:15 13,4 C 12,8 C 95 % 1026,6 hPa 0,0 l/m 0,0 km/h (0 Bft) N 350 0 min 0,0 UV-I 0 W/m 12,6 C 13,4 C 1,6 km/h (1 Bft)
18.10.2022 07:18 13,4 C 12,8 C 95 % 1026,5 hPa 0,0 l/m 1,2 km/h (1 Bft) N-NW 346 0 min 0,0 UV-I 0 W/m 12,6 C 13,4 C 4,8 km/h (1 Bft)
18.10.2022 07:21 13,3 C 12,8 C 95 % 1026,5 hPa 0,0 l/m 2,5 km/h (1 Bft) N-NW 336 0 min 0,0 UV-I 0 W/m 12,5 C 13,3 C 4,8 km/h (1 Bft)
18.10.2022 07:24 13,4 C 12,8 C 95 % 1026,6 hPa 0,0 l/m 3,4 km/h (1 Bft) N-NW 337 0 min 0,0 UV-I 0 W/m 12,6 C 13,4 C 4,8 km/h (1 Bft)
18.10.2022 07:27 13,4 C 12,8 C 95 % 1026,7 hPa 0,0 l/m 3,1 km/h (1 Bft) N-NW 333 0 min 0,0 UV-I 0 W/m 12,6 C 13,4 C 4,8 km/h (1 Bft)
18.10.2022 07:30 13,4 C 12,8 C 95 % 1026,7 hPa 0,0 l/m 4,1 km/h (1 Bft) NW 326 0 min 0,0 UV-I 0 W/m 12,6 C 13,4 C 6,4 km/h (2 Bft)
18.10.2022 07:33 13,4 C 12,8 C 95 % 1026,7 hPa 0,0 l/m 3,2 km/h (1 Bft) N-NW 329 0 min 0,0 UV-I 0 W/m 12,6 C 13,4 C 6,4 km/h (2 Bft)
18.10.2022 07:36 13,4 C 12,8 C 95 % 1026,7 hPa 0,0 l/m 2,3 km/h (1 Bft) N-NW 329 0 min 0,0 UV-I 0 W/m 12,6 C 13,4 C 4,8 km/h (1 Bft)
18.10.2022 07:39 13,4 C 12,8 C 95 % 1026,7 hPa 0,0 l/m 2,9 km/h (1 Bft) NW 326 0 min 0,0 UV-I 0 W/m 12,6 C 13,4 C 4,8 km/h (1 Bft)
18.10.2022 07:42 13,4 C 12,8 C 95 % 1026,6 hPa 0,0 l/m 2,6 km/h (1 Bft) NW 326 0 min 0,0 UV-I 0 W/m 12,6 C 13,4 C 4,8 km/h (1 Bft)
18.10.2022 07:45 13,4 C 12,8 C 95 % 1026,5 hPa 0,0 l/m 3,3 km/h (1 Bft) N-NW 331 0 min 0,0 UV-I 0 W/m 12,6 C 13,4 C 4,8 km/h (1 Bft)
18.10.2022 07:48 13,4 C 12,8 C 95 % 1026,5 hPa 0,0 l/m 4,3 km/h (1 Bft) N-NW 338 0 min 0,0 UV-I 0 W/m 12,6 C 13,4 C 6,4 km/h (2 Bft)
18.10.2022 07:51 13,4 C 12,8 C 95 % 1026,5 hPa 0,0 l/m 4,4 km/h (1 Bft) N-NW 340 0 min 0,0 UV-I 0 W/m 12,6 C 13,4 C 6,4 km/h (2 Bft)
18.10.2022 07:54 13,4 C 12,8 C 95 % 1026,7 hPa 0,0 l/m 2,8 km/h (1 Bft) N-NW 348 0 min 0,0 UV-I 0 W/m 12,6 C 13,4 C 4,8 km/h (1 Bft)
18.10.2022 07:57 13,4 C 12,8 C 95 % 1026,7 hPa 0,0 l/m 5,4 km/h (1 Bft) N 360 0 min 0,0 UV-I 0 W/m 12,6 C 13,4 C 9,7 km/h (2 Bft)
18.10.2022 08:00 13,4 C 12,8 C 95 % 1026,7 hPa 0,0 l/m 8,1 km/h (2 Bft) N 355 0 min 0,0 UV-I 0 W/m 12,6 C 12,4 C 12,9 km/h (3 Bft)
18.10.2022 08:03 13,3 C 12,8 C 95 % 1026,7 hPa 0,0 l/m 8,9 km/h (2 Bft) N 5 0 min 0,0 UV-I 0 W/m 12,5 C 11,8 C 12,9 km/h (3 Bft)
18.10.2022 08:06 13,3 C 12,8 C 95 % 1026,6 hPa 0,0 l/m 6,6 km/h (2 Bft) N 349 0 min 0,0 UV-I 0 W/m 12,5 C 13,2 C 8,0 km/h (2 Bft)
18.10.2022 08:09 13,3 C 12,8 C 95 % 1026,6 hPa 0,2 l/m 6,0 km/h (2 Bft) N-NW 346 0 min 0,0 UV-I 0 W/m 12,5 C 13,3 C 9,7 km/h (2 Bft)
18.10.2022 08:12 13,3 C 12,8 C 95 % 1026,7 hPa 0,0 l/m 5,3 km/h (1 Bft) N-NW 344 0 min 0,0 UV-I 0 W/m 12,5 C 13,3 C 8,0 km/h (2 Bft)
18.10.2022 08:15 13,2 C 12,8 C 95 % 1026,7 hPa 0,0 l/m 5,3 km/h (1 Bft) N-NW 344 0 min 0,0 UV-I 0 W/m 12,4 C 13,2 C 8,0 km/h (2 Bft)
18.10.2022 08:18 13,2 C 12,8 C 95 % 1026,9 hPa 0,0 l/m 4,2 km/h (1 Bft) N-NW 342 0 min 0,0 UV-I 0 W/m 12,4 C 13,2 C 6,4 km/h (2 Bft)
18.10.2022 08:21 13,2 C 12,8 C 95 % 1026,8 hPa 0,0 l/m 4,0 km/h (1 Bft) N 355 0 min 0,0 UV-I 0 W/m 12,4 C 13,2 C 6,4 km/h (2 Bft)
18.10.2022 08:24 13,2 C 12,8 C 95 % 1026,8 hPa 0,0 l/m 1,6 km/h (1 Bft) N 355 0 min 0,0 UV-I 4 W/m 12,4 C 13,2 C 3,2 km/h (1 Bft)
18.10.2022 08:27 13,2 C 12,8 C 95 % 1026,9 hPa 0,0 l/m 1,6 km/h (1 Bft) N 355 0 min 0,0 UV-I 6 W/m 12,4 C 13,2 C 4,8 km/h (1 Bft)
18.10.2022 08:30 13,2 C 12,8 C 95 % 1026,8 hPa 0,0 l/m 2,9 km/h (1 Bft) N 355 0 min 0,0 UV-I 9 W/m 12,4 C 13,2 C 4,8 km/h (1 Bft)
18.10.2022 08:33 13,2 C 12,8 C 95 % 1026,9 hPa 0,0 l/m 2,7 km/h (1 Bft) N 355 0 min 0,0 UV-I 11 W/m 12,4 C 13,2 C 4,8 km/h (1 Bft)
18.10.2022 08:36 13,2 C 12,8 C 95 % 1026,8 hPa 0,0 l/m 2,4 km/h (1 Bft) N 355 0 min 0,0 UV-I 12 W/m 12,4 C 13,2 C 4,8 km/h (1 Bft)
18.10.2022 08:39 13,3 C 12,8 C 95 % 1026,9 hPa 0,0 l/m 0,4 km/h (0 Bft) N 355 0 min 0,0 UV-I 13 W/m 12,5 C 13,3 C 3,2 km/h (1 Bft)
18.10.2022 08:42 13,3 C 12,8 C 95 % 1026,9 hPa 0,0 l/m 0,0 km/h (0 Bft) N 355 0 min 0,0 UV-I 17 W/m 12,5 C 13,3 C 0,0 km/h (0 Bft)
18.10.2022 08:45 13,3 C 13,3 C 95 % 1027,0 hPa 0,0 l/m 0,0 km/h (0 Bft) N 355 0 min 0,0 UV-I 24 W/m 12,5 C 13,3 C 0,0 km/h (0 Bft)
18.10.2022 08:48 13,3 C 13,3 C 95 % 1027,0 hPa 0,0 l/m 0,0 km/h (0 Bft) N 355 0 min 0,0 UV-I 28 W/m 12,5 C 13,3 C 0,0 km/h (0 Bft)
18.10.2022 08:51 13,3 C 13,3 C 95 % 1027,0 hPa 0,0 l/m 0,0 km/h (0 Bft) N 355 0 min 0,0 UV-I 32 W/m 12,5 C 13,3 C 1,6 km/h (1 Bft)
18.10.2022 08:54 13,3 C 13,3 C 95 % 1027,0 hPa 0,0 l/m 0,0 km/h (0 Bft) N 355 0 min 0,0 UV-I 36 W/m 12,5 C 13,3 C 0,0 km/h (0 Bft)
18.10.2022 08:57 13,3 C 13,3 C 95 % 1027,1 hPa 0,0 l/m 0,0 km/h (0 Bft) N 355 0 min 0,0 UV-I 39 W/m 12,5 C 13,3 C 0,0 km/h (0 Bft)
18.10.2022 09:00 13,3 C 13,3 C 95 % 1027,1 hPa 0,0 l/m 0,0 km/h (0 Bft) N 355 0 min 0,0 UV-I 36 W/m 12,5 C 13,3 C 0,0 km/h (0 Bft)
18.10.2022 09:03 13,4 C 13,3 C 95 % 1027,1 hPa 0,0 l/m 0,0 km/h (0 Bft) N 355 0 min 0,0 UV-I 30 W/m 12,6 C 13,4 C 0,0 km/h (0 Bft)
18.10.2022 09:06 13,4 C 13,3 C 95 % 1027,2 hPa 0,0 l/m 0,2 km/h (0 Bft) N 355 0 min 0,0 UV-I 25 W/m 12,6 C 13,4 C 1,6 km/h (1 Bft)
18.10.2022 09:09 13,5 C 13,3 C 95 % 1027,3 hPa 0,0 l/m 1,4 km/h (1 Bft) N 355 0 min 0,0 UV-I 18 W/m 12,7 C 13,5 C 3,2 km/h (1 Bft)
18.10.2022 09:12 13,4 C 13,3 C 95 % 1027,3 hPa 0,0 l/m 1,7 km/h (1 Bft) N 355 0 min 0,0 UV-I 14 W/m 12,6 C 13,4 C 3,2 km/h (1 Bft)
18.10.2022 09:15 13,4 C 13,3 C 95 % 1027,2 hPa 0,0 l/m 1,0 km/h (0 Bft) N 355 0 min 0,0 UV-I 12 W/m 12,6 C 13,4 C 3,2 km/h (1 Bft)
18.10.2022 09:18 13,4 C 13,3 C 95 % 1027,2 hPa 0,0 l/m 0,4 km/h (0 Bft) N 355 0 min 0,0 UV-I 14 W/m 12,6 C 13,4 C 1,6 km/h (1 Bft)
18.10.2022 09:21 13,4 C 13,3 C 95 % 1027,2 hPa 0,0 l/m 0,6 km/h (0 Bft) N 355 0 min 0,0 UV-I 15 W/m 12,6 C 13,4 C 3,2 km/h (1 Bft)
18.10.2022 09:24 13,4 C 13,3 C 95 % 1027,2 hPa 0,0 l/m 0,7 km/h (0 Bft) N 355 0 min 0,0 UV-I 17 W/m 12,6 C 13,4 C 1,6 km/h (1 Bft)
18.10.2022 09:27 13,5 C 13,3 C 95 % 1027,2 hPa 0,0 l/m 0,3 km/h (0 Bft) N 355 0 min 0,0 UV-I 18 W/m 12,7 C 13,5 C 1,6 km/h (1 Bft)
18.10.2022 09:30 13,5 C 13,3 C 95 % 1027,2 hPa 0,0 l/m 0,0 km/h (0 Bft) N 355 0 min 0,0 UV-I 20 W/m 12,7 C 13,5 C 0,0 km/h (0 Bft)
18.10.2022 09:33 13,5 C 13,3 C 95 % 1027,3 hPa 0,0 l/m 0,1 km/h (0 Bft) N 355 0 min 0,0 UV-I 24 W/m 12,7 C 13,5 C 1,6 km/h (1 Bft)
18.10.2022 09:36 13,6 C 13,3 C 95 % 1027,3 hPa 0,0 l/m 0,0 km/h (0 Bft) N 355 0 min 0,0 UV-I 22 W/m 12,8 C 13,6 C 0,0 km/h (0 Bft)
18.10.2022 09:39 13,5 C 13,3 C 95 % 1027,4 hPa 0,0 l/m 0,1 km/h (0 Bft) N 355 0 min 0,0 UV-I 26 W/m 12,7 C 13,5 C 1,6 km/h (1 Bft)
18.10.2022 09:42 13,4 C 13,9 C 95 % 1027,5 hPa 0,0 l/m 0,0 km/h (0 Bft) N 355 0 min 0,0 UV-I 31 W/m 12,6 C 13,4 C 0,0 km/h (0 Bft)
18.10.2022 09:45 13,6 C 13,9 C 95 % 1027,5 hPa 0,0 l/m 0,0 km/h (0 Bft) N 355 0 min 0,0 UV-I 36 W/m 12,8 C 13,6 C 1,6 km/h (1 Bft)
18.10.2022 09:48 13,6 C 13,9 C 95 % 1027,5 hPa 0,0 l/m 0,1 km/h (0 Bft) N 355 0 min 0,0 UV-I 39 W/m 12,8 C 13,6 C 1,6 km/h (1 Bft)
18.10.2022 09:51 13,6 C 13,9 C 95 % 1027,6 hPa 0,0 l/m 1,1 km/h (1 Bft) N 355 0 min 0,0 UV-I 32 W/m 12,8 C 13,6 C 3,2 km/h (1 Bft)
18.10.2022 09:54 13,6 C 13,9 C 95 % 1027,7 hPa 0,0 l/m 0,7 km/h (0 Bft) N 355 0 min 0,0 UV-I 28 W/m 12,8 C 13,6 C 3,2 km/h (1 Bft)
18.10.2022 09:57 13,6 C 13,9 C 95 % 1027,6 hPa 0,0 l/m 0,2 km/h (0 Bft) N 355 0 min 0,0 UV-I 38 W/m 12,8 C 13,6 C 1,6 km/h (1 Bft)
18.10.2022 10:00 13,6 C 13,9 C 95 % 1027,6 hPa 0,0 l/m 0,8 km/h (0 Bft) N 355 0 min 0,0 UV-I 46 W/m 12,8 C 13,6 C 3,2 km/h (1 Bft)
18.10.2022 10:03 13,6 C 13,9 C 95 % 1027,7 hPa 0,0 l/m 0,4 km/h (0 Bft) N 355 0 min 0,0 UV-I 50 W/m 12,8 C 13,6 C 1,6 km/h (1 Bft)
18.10.2022 10:06 13,7 C 13,9 C 95 % 1027,8 hPa 0,0 l/m 0,5 km/h (0 Bft) N 355 0 min 0,2 UV-I 69 W/m 12,9 C 13,7 C 3,2 km/h (1 Bft)
18.10.2022 10:09 13,7 C 14,4 C 95 % 1027,8 hPa 0,0 l/m 0,0 km/h (0 Bft) N 355 0 min 0,6 UV-I 96 W/m 12,9 C 13,7 C 1,6 km/h (1 Bft)
18.10.2022 10:12 13,7 C 15,0 C 95 % 1027,8 hPa 0,0 l/m 0,0 km/h (0 Bft) N 355 0 min 0,7 UV-I 116 W/m 12,9 C 13,7 C 1,6 km/h (1 Bft)
18.10.2022 10:15 13,8 C 15,6 C 95 % 1027,8 hPa 0,0 l/m 0,1 km/h (0 Bft) N 355 0 min 0,7 UV-I 122 W/m 13,0 C 13,8 C 1,6 km/h (1 Bft)
18.10.2022 10:18 13,9 C 15,6 C 95 % 1027,8 hPa 0,0 l/m 0,4 km/h (0 Bft) N 355 0 min 0,7 UV-I 118 W/m 13,1 C 13,9 C 1,6 km/h (1 Bft)
18.10.2022 10:21 13,8 C 15,6 C 95 % 1027,9 hPa 0,0 l/m 1,7 km/h (1 Bft) N 355 0 min 0,7 UV-I 101 W/m 13,0 C 13,8 C 3,2 km/h (1 Bft)
18.10.2022 10:24 13,9 C 15,6 C 94 % 1027,9 hPa 0,0 l/m 2,3 km/h (1 Bft) N 355 0 min 0,6 UV-I 81 W/m 12,9 C 13,9 C 4,8 km/h (1 Bft)
18.10.2022 10:27 13,9 C 15,0 C 94 % 1027,8 hPa 0,0 l/m 1,1 km/h (1 Bft) N 355 0 min 0,2 UV-I 56 W/m 12,9 C 13,9 C 3,2 km/h (1 Bft)
18.10.2022 10:30 13,9 C 15,0 C 94 % 1027,9 hPa 0,0 l/m 1,1 km/h (1 Bft) N 355 0 min 0,0 UV-I 51 W/m 12,9 C 13,9 C 3,2 km/h (1 Bft)
18.10.2022 10:33 13,8 C 14,4 C 94 % 1028,0 hPa 0,0 l/m 0,2 km/h (0 Bft) N 355 0 min 0,0 UV-I 48 W/m 12,9 C 13,8 C 1,6 km/h (1 Bft)
18.10.2022 10:36 13,9 C 14,4 C 94 % 1028,0 hPa 0,0 l/m 0,4 km/h (0 Bft) N 355 0 min 0,0 UV-I 49 W/m 12,9 C 13,9 C 1,6 km/h (1 Bft)
18.10.2022 10:39 13,9 C 14,4 C 94 % 1027,9 hPa 0,0 l/m 0,2 km/h (0 Bft) N 355 0 min 0,0 UV-I 51 W/m 12,9 C 13,9 C 1,6 km/h (1 Bft)
18.10.2022 10:42 13,9 C 15,0 C 94 % 1028,0 hPa 0,0 l/m 0,0 km/h (0 Bft) N 355 0 min 0,4 UV-I 76 W/m 12,9 C 13,9 C 0,0 km/h (0 Bft)
18.10.2022 10:45 14,0 C 15,0 C 94 % 1028,0 hPa 0,0 l/m 1,9 km/h (1 Bft) N 355 0 min 0,2 UV-I 65 W/m 13,0 C 14,0 C 3,2 km/h (1 Bft)
18.10.2022 10:48 14,0 C 15,0 C 94 % 1028,1 hPa 0,0 l/m 1,0 km/h (0 Bft) N 355 0 min 0,0 UV-I 53 W/m 13,0 C 14,0 C 3,2 km/h (1 Bft)
18.10.2022 10:51 13,9 C 15,0 C 94 % 1028,0 hPa 0,0 l/m 2,3 km/h (1 Bft) N 355 0 min 0,0 UV-I 42 W/m 12,9 C 13,9 C 3,2 km/h (1 Bft)
18.10.2022 10:54 14,0 C 15,0 C 94 % 1028,0 hPa 0,0 l/m 2,7 km/h (1 Bft) N 355 0 min 0,1 UV-I 47 W/m 13,0 C 14,0 C 4,8 km/h (1 Bft)
18.10.2022 10:57 14,0 C 15,0 C 94 % 1028,1 hPa 0,0 l/m 1,0 km/h (0 Bft) N 355 0 min 0,6 UV-I 72 W/m 13,0 C 14,0 C 3,2 km/h (1 Bft)
18.10.2022 11:00 13,9 C 15,0 C 94 % 1028,0 hPa 0,0 l/m 0,0 km/h (0 Bft) N 355 0 min 0,8 UV-I 96 W/m 12,9 C 13,9 C 1,6 km/h (1 Bft)
18.10.2022 11:03 14,2 C 16,1 C 94 % 1028,1 hPa 0,0 l/m 0,0 km/h (0 Bft) N 355 0 min 1,0 UV-I 189 W/m 13,2 C 14,2 C 1,6 km/h (1 Bft)
18.10.2022 11:06 14,2 C 17,2 C 93 % 1028,1 hPa 0,0 l/m 0,6 km/h (0 Bft) N 355 0 min 1,1 UV-I 239 W/m 13,1 C 14,2 C 1,6 km/h (1 Bft)
18.10.2022 11:09 14,3 C 17,8 C 93 % 1028,1 hPa 0,0 l/m 0,2 km/h (0 Bft) N 355 0 min 1,1 UV-I 236 W/m 13,2 C 14,3 C 1,6 km/h (1 Bft)
18.10.2022 11:12 14,4 C 17,8 C 93 % 1028,1 hPa 0,0 l/m 1,1 km/h (1 Bft) N 355 0 min 0,9 UV-I 189 W/m 13,3 C 14,4 C 3,2 km/h (1 Bft)
18.10.2022 11:15 14,4 C 17,2 C 93 % 1028,1 hPa 0,0 l/m 0,2 km/h (0 Bft) N 355 0 min 0,8 UV-I 161 W/m 13,3 C 14,4 C 1,6 km/h (1 Bft)
18.10.2022 11:18 14,4 C 17,2 C 92 % 1028,2 hPa 0,0 l/m 0,0 km/h (0 Bft) N 355 0 min 0,9 UV-I 187 W/m 13,1 C 14,4 C 0,0 km/h (0 Bft)
18.10.2022 11:21 14,6 C 17,2 C 92 % 1028,2 hPa 0,0 l/m 0,1 km/h (0 Bft) N 355 0 min 0,9 UV-I 182 W/m 13,3 C 14,6 C 1,6 km/h (1 Bft)
18.10.2022 11:24 14,6 C 17,8 C 92 % 1028,3 hPa 0,0 l/m 1,1 km/h (1 Bft) N 355 0 min 0,8 UV-I 141 W/m 13,3 C 14,6 C 3,2 km/h (1 Bft)
18.10.2022 11:27 14,6 C 17,2 C 91 % 1028,4 hPa 0,0 l/m 1,5 km/h (1 Bft) N 355 0 min 0,8 UV-I 130 W/m 13,1 C 14,6 C 3,2 km/h (1 Bft)
18.10.2022 11:30 14,7 C 17,2 C 91 % 1028,3 hPa 0,0 l/m 0,2 km/h (0 Bft) N 355 0 min 0,9 UV-I 171 W/m 13,2 C 14,7 C 1,6 km/h (1 Bft)
18.10.2022 11:33 14,8 C 17,2 C 91 % 1028,3 hPa 0,0 l/m 0,1 km/h (0 Bft) N 355 0 min 0,9 UV-I 187 W/m 13,3 C 14,8 C 1,6 km/h (1 Bft)
18.10.2022 11:36 14,8 C 17,2 C 90 % 1028,4 hPa 0,0 l/m 1,8 km/h (1 Bft) N 355 0 min 0,8 UV-I 177 W/m 13,2 C 14,8 C 3,2 km/h (1 Bft)
18.10.2022 11:39 14,8 C 17,2 C 90 % 1028,4 hPa 0,0 l/m 2,6 km/h (1 Bft) N 355 0 min 0,8 UV-I 168 W/m 13,2 C 14,8 C 4,8 km/h (1 Bft)
18.10.2022 11:42 14,9 C 17,8 C 91 % 1028,4 hPa 0,0 l/m 2,0 km/h (1 Bft) N 355 0 min 0,8 UV-I 159 W/m 13,4 C 14,9 C 4,8 km/h (1 Bft)
18.10.2022 11:45 15,0 C 17,2 C 90 % 1028,4 hPa 0,0 l/m 0,7 km/h (0 Bft) N 355 0 min 0,7 UV-I 123 W/m 13,4 C 15,0 C 4,8 km/h (1 Bft)
18.10.2022 11:48 14,9 C 17,2 C 90 % 1028,3 hPa 0,0 l/m 2,8 km/h (1 Bft) N 355 0 min 0,9 UV-I 114 W/m 13,3 C 14,9 C 4,8 km/h (1 Bft)
18.10.2022 11:51 14,9 C 17,2 C 89 % 1028,4 hPa 0,0 l/m 2,5 km/h (1 Bft) N 355 0 min 1,1 UV-I 142 W/m 13,1 C 14,9 C 4,8 km/h (1 Bft)
18.10.2022 11:54 15,0 C 18,3 C 89 % 1028,4 hPa 0,0 l/m 2,6 km/h (1 Bft) N 355 0 min 1,3 UV-I 183 W/m 13,2 C 15,0 C 4,8 km/h (1 Bft)
18.10.2022 11:57 15,1 C 18,3 C 89 % 1028,4 hPa 0,0 l/m 2,3 km/h (1 Bft) N 355 0 min 1,2 UV-I 189 W/m 13,3 C 15,1 C 4,8 km/h (1 Bft)
18.10.2022 12:00 15,1 C 18,3 C 89 % 1028,5 hPa 0,0 l/m 2,7 km/h (1 Bft) N 355 0 min 1,0 UV-I 162 W/m 13,3 C 15,1 C 4,8 km/h (1 Bft)
18.10.2022 12:03 15,1 C 17,8 C 89 % 1028,6 hPa 0,0 l/m 3,6 km/h (1 Bft) N 355 0 min 0,9 UV-I 147 W/m 13,3 C 15,1 C 6,4 km/h (2 Bft)
18.10.2022 12:06 15,1 C 17,2 C 89 % 1028,5 hPa 0,0 l/m 2,7 km/h (1 Bft) N 355 0 min 0,9 UV-I 142 W/m 13,3 C 15,1 C 4,8 km/h (1 Bft)
18.10.2022 12:09 15,1 C 17,2 C 89 % 1028,5 hPa 0,0 l/m 0,7 km/h (0 Bft) N 355 0 min 1,0 UV-I 159 W/m 13,3 C 15,1 C 3,2 km/h (1 Bft)
18.10.2022 12:12 15,2 C 17,8 C 89 % 1028,6 hPa 0,0 l/m 1,4 km/h (1 Bft) N 355 0 min 1,2 UV-I 178 W/m 13,4 C 15,2 C 3,2 km/h (1 Bft)
18.10.2022 12:15 15,2 C 17,8 C 89 % 1028,5 hPa 0,0 l/m 4,3 km/h (1 Bft) N 355 0 min 1,1 UV-I 156 W/m 13,4 C 15,2 C 6,4 km/h (2 Bft)
18.10.2022 12:18 15,2 C 17,8 C 89 % 1028,5 hPa 0,0 l/m 3,5 km/h (1 Bft) N 360 0 min 1,2 UV-I 155 W/m 13,4 C 15,2 C 6,4 km/h (2 Bft)
18.10.2022 12:21 15,3 C 18,3 C 89 % 1028,6 hPa 0,0 l/m 4,2 km/h (1 Bft) N-NW 340 0 min 1,3 UV-I 170 W/m 13,5 C 15,3 C 6,4 km/h (2 Bft)
18.10.2022 12:24 15,3 C 18,3 C 88 % 1028,7 hPa 0,0 l/m 4,4 km/h (1 Bft) N 350 0 min 1,3 UV-I 199 W/m 13,3 C 15,3 C 8,0 km/h (2 Bft)
18.10.2022 12:27 15,4 C 18,9 C 88 % 1028,6 hPa 0,0 l/m 4,6 km/h (1 Bft) N-NW 328 0 min 1,4 UV-I 210 W/m 13,4 C 15,4 C 8,0 km/h (2 Bft)
18.10.2022 12:30 15,5 C 19,4 C 88 % 1028,7 hPa 0,0 l/m 3,1 km/h (1 Bft) N-NW 331 0 min 1,6 UV-I 213 W/m 13,5 C 15,5 C 4,8 km/h (1 Bft)
18.10.2022 12:33 15,7 C 22,2 C 88 % 1028,7 hPa 0,0 l/m 3,9 km/h (1 Bft) N-NW 337 3 min 2,2 UV-I 370 W/m 13,7 C 15,7 C 8,0 km/h (2 Bft)
18.10.2022 12:36 15,9 C 25,0 C 88 % 1028,7 hPa 0,0 l/m 2,2 km/h (1 Bft) N-NW 337 3 min 2,1 UV-I 523 W/m 13,9 C 15,9 C 4,8 km/h (1 Bft)
18.10.2022 12:39 15,9 C 23,3 C 86 % 1028,8 hPa 0,0 l/m 1,8 km/h (1 Bft) N-NW 335 3 min 1,8 UV-I 326 W/m 13,6 C 15,9 C 4,8 km/h (1 Bft)
18.10.2022 12:42 16,1 C 22,2 C 86 % 1028,7 hPa 0,0 l/m 2,5 km/h (1 Bft) N-NW 334 0 min 1,7 UV-I 284 W/m 13,8 C 16,1 C 6,4 km/h (2 Bft)
18.10.2022 12:45 16,1 C 22,2 C 86 % 1028,7 hPa 0,0 l/m 3,0 km/h (1 Bft) NW 309 3 min 1,8 UV-I 302 W/m 13,8 C 16,1 C 6,4 km/h (2 Bft)
18.10.2022 12:48 16,3 C 23,3 C 86 % 1028,6 hPa 0,0 l/m 3,2 km/h (1 Bft) NW 308 3 min 1,9 UV-I 366 W/m 14,0 C 16,3 C 6,4 km/h (2 Bft)
18.10.2022 12:51 16,3 C 21,7 C 85 % 1028,7 hPa 0,0 l/m 5,2 km/h (1 Bft) N-NW 340 0 min 1,8 UV-I 274 W/m 13,8 C 16,3 C 8,0 km/h (2 Bft)
18.10.2022 12:54 16,1 C 21,7 C 84 % 1028,7 hPa 0,0 l/m 6,5 km/h (2 Bft) N 5 3 min 1,8 UV-I 315 W/m 13,4 C 16,1 C 9,7 km/h (2 Bft)
18.10.2022 12:57 16,1 C 21,7 C 85 % 1028,7 hPa 0,0 l/m 5,7 km/h (1 Bft) NW 321 3 min 1,6 UV-I 302 W/m 13,6 C 16,1 C 9,7 km/h (2 Bft)
18.10.2022 13:00 16,2 C 21,1 C 85 % 1028,6 hPa 0,0 l/m 5,3 km/h (1 Bft) N 355 0 min 1,5 UV-I 263 W/m 13,7 C 16,2 C 9,7 km/h (2 Bft)
18.10.2022 13:03 16,0 C 21,1 C 85 % 1028,6 hPa 0,0 l/m 5,5 km/h (1 Bft) W-NW 284 0 min 1,6 UV-I 254 W/m 13,5 C 16,0 C 9,7 km/h (2 Bft)
18.10.2022 13:06 16,2 C 21,1 C 86 % 1028,7 hPa 0,0 l/m 4,5 km/h (1 Bft) NW 326 0 min 1,7 UV-I 287 W/m 13,9 C 16,2 C 8,0 km/h (2 Bft)
18.10.2022 13:09 16,2 C 20,6 C 86 % 1028,7 hPa 0,0 l/m 4,2 km/h (1 Bft) NW 305 0 min 1,5 UV-I 231 W/m 13,9 C 16,2 C 8,0 km/h (2 Bft)
18.10.2022 13:12 16,1 C 20,0 C 86 % 1028,8 hPa 0,0 l/m 3,9 km/h (1 Bft) NW 321 0 min 1,6 UV-I 229 W/m 13,8 C 16,1 C 6,4 km/h (2 Bft)
18.10.2022 13:15 16,1 C 20,6 C 86 % 1028,7 hPa 0,0 l/m 4,1 km/h (1 Bft) N 360 0 min 1,5 UV-I 245 W/m 13,8 C 16,1 C 8,0 km/h (2 Bft)
18.10.2022 13:18 16,1 C 20,6 C 86 % 1028,7 hPa 0,0 l/m 3,8 km/h (1 Bft) N 5 0 min 1,4 UV-I 231 W/m 13,8 C 16,1 C 4,8 km/h (1 Bft)
18.10.2022 13:21 16,0 C 20,0 C 86 % 1028,6 hPa 0,0 l/m 3,6 km/h (1 Bft) N 5 0 min 1,3 UV-I 215 W/m 13,7 C 16,0 C 4,8 km/h (1 Bft)
18.10.2022 13:24 16,1 C 20,0 C 86 % 1028,7 hPa 0,0 l/m 6,2 km/h (2 Bft) N 11 0 min 1,3 UV-I 214 W/m 13,8 C 16,1 C 9,7 km/h (2 Bft)
18.10.2022 13:27 16,1 C 20,0 C 86 % 1028,6 hPa 0,0 l/m 5,8 km/h (2 Bft) N 360 0 min 1,4 UV-I 221 W/m 13,8 C 16,1 C 8,0 km/h (2 Bft)
18.10.2022 13:30 16,1 C 20,6 C 86 % 1028,7 hPa 0,0 l/m 5,9 km/h (2 Bft) N 5 0 min 1,4 UV-I 230 W/m 13,8 C 16,1 C 11,3 km/h (2 Bft)
18.10.2022 13:33 16,1 C 20,6 C 85 % 1028,8 hPa 0,0 l/m 6,9 km/h (2 Bft) N-NW 347 0 min 1,5 UV-I 242 W/m 13,6 C 15,8 C 9,7 km/h (2 Bft)
18.10.2022 13:36 16,1 C 20,0 C 86 % 1028,6 hPa 0,0 l/m 4,2 km/h (1 Bft) N-NW 328 0 min 1,3 UV-I 210 W/m 13,8 C 16,1 C 8,0 km/h (2 Bft)
18.10.2022 13:39 16,2 C 19,4 C 86 % 1028,6 hPa 0,0 l/m 4,0 km/h (1 Bft) N-NW 346 0 min 1,1 UV-I 172 W/m 13,9 C 16,2 C 6,4 km/h (2 Bft)
18.10.2022 13:42 16,1 C 18,9 C 85 % 1028,6 hPa 0,0 l/m 6,4 km/h (2 Bft) N 360 0 min 1,0 UV-I 149 W/m 13,6 C 16,1 C 9,7 km/h (2 Bft)
18.10.2022 13:45 16,0 C 18,3 C 86 % 1028,6 hPa 0,0 l/m 5,9 km/h (2 Bft) NW 319 0 min 0,9 UV-I 136 W/m 13,7 C 16,0 C 9,7 km/h (2 Bft)
18.10.2022 13:48 15,9 C 18,3 C 86 % 1028,6 hPa 0,0 l/m 4,8 km/h (1 Bft) N-NW 345 0 min 0,9 UV-I 141 W/m 13,6 C 15,9 C 6,4 km/h (2 Bft)
18.10.2022 13:51 15,9 C 17,8 C 87 % 1028,5 hPa 0,0 l/m 4,7 km/h (1 Bft) N-NW 346 0 min 1,0 UV-I 148 W/m 13,7 C 15,9 C 6,4 km/h (2 Bft)
18.10.2022 13:54 15,8 C 18,3 C 87 % 1028,6 hPa 0,0 l/m 3,6 km/h (1 Bft) N-NW 327 0 min 0,9 UV-I 142 W/m 13,6 C 15,8 C 6,4 km/h (2 Bft)
18.10.2022 13:57 15,9 C 17,8 C 86 % 1028,6 hPa 0,0 l/m 3,4 km/h (1 Bft) NW 316 0 min 0,9 UV-I 140 W/m 13,6 C 15,9 C 6,4 km/h (2 Bft)
18.10.2022 14:00 15,9 C 18,3 C 87 % 1028,6 hPa 0,0 l/m 3,1 km/h (1 Bft) NW 319 0 min 0,9 UV-I 144 W/m 13,7 C 15,9 C 4,8 km/h (1 Bft)
18.10.2022 14:03 15,9 C 18,3 C 86 % 1028,5 hPa 0,0 l/m 4,3 km/h (1 Bft) NW 317 0 min 1,0 UV-I 152 W/m 13,6 C 15,9 C 8,0 km/h (2 Bft)
18.10.2022 14:06 15,9 C 18,3 C 87 % 1028,5 hPa 0,0 l/m 2,3 km/h (1 Bft) N-NW 340 0 min 1,1 UV-I 178 W/m 13,7 C 15,9 C 6,4 km/h (2 Bft)
18.10.2022 14:09 15,9 C 18,9 C 86 % 1028,5 hPa 0,0 l/m 2,9 km/h (1 Bft) NW 319 0 min 1,3 UV-I 232 W/m 13,6 C 15,9 C 6,4 km/h (2 Bft)
18.10.2022 14:12 16,1 C 20,6 C 87 % 1028,4 hPa 0,0 l/m 1,8 km/h (1 Bft) NW 319 0 min 1,5 UV-I 279 W/m 13,9 C 16,1 C 3,2 km/h (1 Bft)
18.10.2022 14:15 16,1 C 20,6 C 86 % 1028,5 hPa 0,0 l/m 3,8 km/h (1 Bft) NW 317 0 min 1,5 UV-I 267 W/m 13,8 C 16,1 C 6,4 km/h (2 Bft)
18.10.2022 14:18 16,1 C 20,6 C 85 % 1028,4 hPa 0,0 l/m 4,0 km/h (1 Bft) N-NW 333 0 min 1,4 UV-I 252 W/m 13,6 C 16,1 C 6,4 km/h (2 Bft)
18.10.2022 14:21 16,1 C 20,0 C 86 % 1028,4 hPa 0,0 l/m 1,4 km/h (1 Bft) N-NW 333 0 min 1,3 UV-I 247 W/m 13,8 C 16,1 C 4,8 km/h (1 Bft)
18.10.2022 14:24 16,2 C 20,0 C 86 % 1028,5 hPa 0,0 l/m 0,9 km/h (0 Bft) N-NW 333 0 min 1,2 UV-I 224 W/m 13,9 C 16,2 C 3,2 km/h (1 Bft)
18.10.2022 14:27 16,3 C 20,6 C 85 % 1028,4 hPa 0,0 l/m 3,8 km/h (1 Bft) N-NW 338 0 min 1,3 UV-I 228 W/m 13,8 C 16,3 C 6,4 km/h (2 Bft)
18.10.2022 14:30 16,2 C 20,6 C 85 % 1028,5 hPa 0,0 l/m 5,9 km/h (2 Bft) N-NW 348 0 min 1,2 UV-I 232 W/m 13,7 C 16,2 C 9,7 km/h (2 Bft)
18.10.2022 14:33 16,1 C 20,0 C 85 % 1028,6 hPa 0,0 l/m 7,8 km/h (2 Bft) N-NW 338 0 min 1,1 UV-I 188 W/m 13,6 C 15,4 C 9,7 km/h (2 Bft)
18.10.2022 14:36 16,1 C 19,4 C 86 % 1028,6 hPa 0,0 l/m 8,7 km/h (2 Bft) N-NW 342 0 min 0,9 UV-I 149 W/m 13,8 C 14,9 C 14,5 km/h (3 Bft)
18.10.2022 14:39 15,9 C 18,3 C 86 % 1028,6 hPa 0,0 l/m 9,7 km/h (2 Bft) N 355 0 min 0,6 UV-I 105 W/m 13,6 C 14,2 C 16,1 km/h (3 Bft)
18.10.2022 14:42 15,8 C 17,8 C 87 % 1028,5 hPa 0,0 l/m 8,2 km/h (2 Bft) NO 49 0 min 0,6 UV-I 99 W/m 13,6 C 14,8 C 14,5 km/h (3 Bft)
18.10.2022 14:45 15,7 C 17,2 C 87 % 1028,5 hPa 0,0 l/m 8,9 km/h (2 Bft) N 355 0 min 0,7 UV-I 111 W/m 13,5 C 14,4 C 14,5 km/h (3 Bft)
18.10.2022 14:48 15,6 C 17,2 C 87 % 1028,6 hPa 0,0 l/m 9,9 km/h (2 Bft) N 355 0 min 0,7 UV-I 112 W/m 13,4 C 13,8 C 14,5 km/h (3 Bft)
18.10.2022 14:51 15,6 C 16,7 C 88 % 1028,6 hPa 0,0 l/m 6,6 km/h (2 Bft) N-NW 341 0 min 0,7 UV-I 107 W/m 13,6 C 15,5 C 12,9 km/h (3 Bft)
18.10.2022 14:54 15,5 C 16,7 C 88 % 1028,5 hPa 0,0 l/m 7,8 km/h (2 Bft) N 355 0 min 0,7 UV-I 110 W/m 13,5 C 14,7 C 12,9 km/h (3 Bft)
18.10.2022 14:57 15,5 C 17,2 C 88 % 1028,5 hPa 0,0 l/m 6,8 km/h (2 Bft) N-NW 346 0 min 0,7 UV-I 116 W/m 13,5 C 15,3 C 14,5 km/h (3 Bft)
18.10.2022 15:00 15,4 C 16,7 C 88 % 1028,4 hPa 0,0 l/m 8,2 km/h (2 Bft) N 350 0 min 0,8 UV-I 126 W/m 13,4 C 14,4 C 12,9 km/h (3 Bft)
18.10.2022 15:03 15,5 C 17,2 C 87 % 1028,3 hPa 0,0 l/m 6,9 km/h (2 Bft) N-NW 348 0 min 1,0 UV-I 145 W/m 13,3 C 15,2 C 9,7 km/h (2 Bft)
18.10.2022 15:06 15,6 C 17,8 C 88 % 1028,3 hPa 0,0 l/m 4,0 km/h (1 Bft) N-NW 348 0 min 1,1 UV-I 163 W/m 13,6 C 15,6 C 9,7 km/h (2 Bft)
18.10.2022 15:09 15,6 C 18,3 C 88 % 1028,2 hPa 0,0 l/m 4,7 km/h (1 Bft) N 360 0 min 1,2 UV-I 177 W/m 13,6 C 15,6 C 6,4 km/h (2 Bft)
18.10.2022 15:12 15,7 C 18,9 C 88 % 1028,4 hPa 0,0 l/m 4,6 km/h (1 Bft) N 5 0 min 1,2 UV-I 177 W/m 13,7 C 15,7 C 8,0 km/h (2 Bft)
18.10.2022 15:15 15,7 C 18,9 C 87 % 1028,3 hPa 0,0 l/m 4,6 km/h (1 Bft) N 355 0 min 1,1 UV-I 143 W/m 13,5 C 15,7 C 8,0 km/h (2 Bft)
18.10.2022 15:18 15,6 C 18,3 C 87 % 1028,3 hPa 0,0 l/m 2,8 km/h (1 Bft) N 355 0 min 0,9 UV-I 100 W/m 13,4 C 15,6 C 4,8 km/h (1 Bft)
18.10.2022 15:21 15,6 C 18,9 C 88 % 1028,3 hPa 0,0 l/m 1,6 km/h (1 Bft) N 355 0 min 1,0 UV-I 117 W/m 13,6 C 15,6 C 3,2 km/h (1 Bft)
18.10.2022 15:24 15,8 C 19,4 C 88 % 1028,3 hPa 0,0 l/m 0,2 km/h (0 Bft) N 355 0 min 1,2 UV-I 193 W/m 13,8 C 15,8 C 1,6 km/h (1 Bft)
18.10.2022 15:27 16,1 C 22,2 C 88 % 1028,4 hPa 0,0 l/m 2,2 km/h (1 Bft) N 355 0 min 1,5 UV-I 211 W/m 14,1 C 16,1 C 4,8 km/h (1 Bft)
18.10.2022 15:30 16,2 C 22,8 C 87 % 1028,3 hPa 0,0 l/m 1,0 km/h (0 Bft) N 360 0 min 1,4 UV-I 265 W/m 14,0 C 16,2 C 3,2 km/h (1 Bft)
18.10.2022 15:33 16,3 C 22,8 C 86 % 1028,3 hPa 0,0 l/m 2,5 km/h (1 Bft) N 355 0 min 1,1 UV-I 220 W/m 14,0 C 16,3 C 4,8 km/h (1 Bft)
18.10.2022 15:36 16,1 C 22,2 C 86 % 1028,2 hPa 0,0 l/m 4,6 km/h (1 Bft) O-NO 58 0 min 1,1 UV-I 176 W/m 13,8 C 16,1 C 6,4 km/h (2 Bft)
18.10.2022 15:39 16,2 C 23,9 C 86 % 1028,2 hPa 0,0 l/m 5,3 km/h (1 Bft) N-NO 15 3 min 1,5 UV-I 345 W/m 13,9 C 16,2 C 8,0 km/h (2 Bft)
18.10.2022 15:42 16,5 C 28,9 C 86 % 1028,3 hPa 0,0 l/m 8,4 km/h (2 Bft) N-NO 29 3 min 1,5 UV-I 390 W/m 14,1 C 15,5 C 11,3 km/h (2 Bft)
18.10.2022 15:45 16,4 C 29,4 C 85 % 1028,3 hPa 0,0 l/m 6,2 km/h (2 Bft) NO 47 3 min 1,5 UV-I 473 W/m 13,9 C 16,4 C 9,7 km/h (2 Bft)
18.10.2022 15:48 16,2 C 25,6 C 84 % 1028,4 hPa 0,0 l/m 4,9 km/h (1 Bft) NO 49 0 min 1,1 UV-I 212 W/m 13,5 C 16,2 C 8,0 km/h (2 Bft)
18.10.2022 15:51 16,1 C 23,3 C 85 % 1028,3 hPa 0,0 l/m 4,3 km/h (1 Bft) NO 51 0 min 1,1 UV-I 165 W/m 13,6 C 16,1 C 6,4 km/h (2 Bft)
18.10.2022 15:54 16,0 C 22,2 C 85 % 1028,4 hPa 0,0 l/m 5,5 km/h (1 Bft) N-NO 28 0 min 1,1 UV-I 150 W/m 13,5 C 16,0 C 9,7 km/h (2 Bft)
18.10.2022 15:57 16,1 C 23,3 C 86 % 1028,3 hPa 0,0 l/m 4,0 km/h (1 Bft) N-NO 25 0 min 1,2 UV-I 249 W/m 13,8 C 16,1 C 6,4 km/h (2 Bft)
18.10.2022 16:00 16,0 C 23,9 C 85 % 1028,4 hPa 0,0 l/m 5,2 km/h (1 Bft) N-NO 12 0 min 1,1 UV-I 192 W/m 13,5 C 16,0 C 8,0 km/h (2 Bft)
18.10.2022 16:03 16,1 C 26,1 C 84 % 1028,3 hPa 0,0 l/m 3,8 km/h (1 Bft) N-NO 12 3 min 1,4 UV-I 387 W/m 13,4 C 16,1 C 6,4 km/h (2 Bft)
18.10.2022 16:06 16,3 C 29,4 C 84 % 1028,3 hPa 0,0 l/m 4,4 km/h (1 Bft) N-NO 24 3 min 1,4 UV-I 404 W/m 13,6 C 16,3 C 6,4 km/h (2 Bft)
18.10.2022 16:09 16,7 C 31,1 C 84 % 1028,4 hPa 0,0 l/m 1,7 km/h (1 Bft) N-NO 25 3 min 1,4 UV-I 417 W/m 14,0 C 16,7 C 4,8 km/h (1 Bft)
18.10.2022 16:12 16,8 C 30,6 C 82 % 1028,5 hPa 0,0 l/m 6,0 km/h (2 Bft) N 355 3 min 1,3 UV-I 371 W/m 13,7 C 16,8 C 11,3 km/h (2 Bft)
18.10.2022 16:15 16,7 C 31,7 C 81 % 1028,4 hPa 0,0 l/m 5,6 km/h (1 Bft) N-NO 17 3 min 1,3 UV-I 355 W/m 13,4 C 16,7 C 9,7 km/h (2 Bft)
18.10.2022 16:18 16,6 C 27,8 C 83 % 1028,3 hPa 0,0 l/m 5,5 km/h (1 Bft) N 5 0 min 1,0 UV-I 238 W/m 13,7 C 16,6 C 8,0 km/h (2 Bft)
18.10.2022 16:21 16,2 C 23,9 C 83 % 1028,4 hPa 0,0 l/m 6,5 km/h (2 Bft) N 5 0 min 0,9 UV-I 106 W/m 13,3 C 16,2 C 8,0 km/h (2 Bft)
18.10.2022 16:24 15,9 C 22,2 C 84 % 1028,4 hPa 0,0 l/m 5,7 km/h (1 Bft) N 5 0 min 0,8 UV-I 105 W/m 13,2 C 15,9 C 8,0 km/h (2 Bft)
18.10.2022 16:27 15,9 C 21,7 C 85 % 1028,4 hPa 0,0 l/m 4,6 km/h (1 Bft) N 10 0 min 0,9 UV-I 130 W/m 13,4 C 15,9 C 6,4 km/h (2 Bft)
18.10.2022 16:30 15,9 C 20,6 C 85 % 1028,4 hPa 0,0 l/m 3,1 km/h (1 Bft) N 10 0 min 0,8 UV-I 85 W/m 13,4 C 15,9 C 6,4 km/h (2 Bft)
18.10.2022 16:33 15,8 C 19,4 C 85 % 1028,4 hPa 0,0 l/m 3,7 km/h (1 Bft) N 10 0 min 0,8 UV-I 83 W/m 13,3 C 15,8 C 6,4 km/h (2 Bft)
18.10.2022 16:36 15,8 C 18,9 C 85 % 1028,4 hPa 0,0 l/m 4,6 km/h (1 Bft) N 9 0 min 0,7 UV-I 87 W/m 13,3 C 15,8 C 8,0 km/h (2 Bft)
18.10.2022 16:39 15,8 C 18,9 C 84 % 1028,5 hPa 0,0 l/m 5,3 km/h (1 Bft) N-NO 14 0 min 0,7 UV-I 76 W/m 13,1 C 15,8 C 8,0 km/h (2 Bft)
18.10.2022 16:42 16,1 C 20,6 C 84 % 1028,5 hPa 0,0 l/m 4,1 km/h (1 Bft) N 9 0 min 0,8 UV-I 165 W/m 13,4 C 16,1 C 6,4 km/h (2 Bft)
18.10.2022 16:45 16,0 C 20,0 C 84 % 1028,5 hPa 0,0 l/m 2,7 km/h (1 Bft) N 9 0 min 0,6 UV-I 69 W/m 13,3 C 16,0 C 4,8 km/h (1 Bft)
18.10.2022 16:48 15,8 C 18,3 C 84 % 1028,5 hPa 0,0 l/m 2,9 km/h (1 Bft) N 9 0 min 0,5 UV-I 60 W/m 13,1 C 15,8 C 4,8 km/h (1 Bft)
18.10.2022 16:51 15,7 C 17,8 C 85 % 1028,5 hPa 0,0 l/m 3,7 km/h (1 Bft) N 9 0 min 0,5 UV-I 62 W/m 13,2 C 15,7 C 4,8 km/h (1 Bft)
18.10.2022 16:54 15,6 C 17,2 C 85 % 1028,4 hPa 0,0 l/m 4,0 km/h (1 Bft) N 5 0 min 0,6 UV-I 88 W/m 13,1 C 15,6 C 6,4 km/h (2 Bft)
18.10.2022 16:57 15,6 C 17,8 C 85 % 1028,5 hPa 0,0 l/m 4,1 km/h (1 Bft) N 5 0 min 0,6 UV-I 112 W/m 13,1 C 15,6 C 6,4 km/h (2 Bft)
18.10.2022 17:00 15,6 C 18,3 C 85 % 1028,5 hPa 0,0 l/m 3,7 km/h (1 Bft) N 351 0 min 0,6 UV-I 132 W/m 13,1 C 15,6 C 6,4 km/h (2 Bft)
18.10.2022 17:03 15,8 C 21,1 C 86 % 1028,4 hPa 0,0 l/m 4,3 km/h (1 Bft) N 360 0 min 0,6 UV-I 185 W/m 13,5 C 15,8 C 6,4 km/h (2 Bft)
18.10.2022 17:06 15,9 C 22,8 C 85 % 1028,5 hPa 0,0 l/m 4,6 km/h (1 Bft) N-NW 344 0 min 0,6 UV-I 198 W/m 13,4 C 15,9 C 8,0 km/h (2 Bft)
18.10.2022 17:09 15,9 C 24,4 C 85 % 1028,4 hPa 0,0 l/m 4,0 km/h (1 Bft) N 9 0 min 0,5 UV-I 197 W/m 13,4 C 15,9 C 6,4 km/h (2 Bft)
18.10.2022 17:12 15,8 C 25,0 C 85 % 1028,4 hPa 0,0 l/m 4,2 km/h (1 Bft) N-NO 16 0 min 0,5 UV-I 133 W/m 13,3 C 15,8 C 6,4 km/h (2 Bft)
18.10.2022 17:15 15,8 C 26,1 C 85 % 1028,4 hPa 0,0 l/m 5,3 km/h (1 Bft) N-NO 19 0 min 0,5 UV-I 179 W/m 13,3 C 15,8 C 8,0 km/h (2 Bft)
18.10.2022 17:18 15,9 C 26,7 C 85 % 1028,3 hPa 0,0 l/m 4,6 km/h (1 Bft) N-NO 19 0 min 0,4 UV-I 160 W/m 13,4 C 15,9 C 6,4 km/h (2 Bft)
18.10.2022 17:21 15,8 C 25,0 C 84 % 1028,3 hPa 0,0 l/m 4,9 km/h (1 Bft) N-NO 18 0 min 0,0 UV-I 96 W/m 13,1 C 15,8 C 8,0 km/h (2 Bft)
18.10.2022 17:24 15,8 C 24,4 C 85 % 1028,3 hPa 0,0 l/m 4,3 km/h (1 Bft) N-NO 17 0 min 0,0 UV-I 130 W/m 13,3 C 15,8 C 6,4 km/h (2 Bft)
18.10.2022 17:27 15,9 C 24,4 C 85 % 1028,3 hPa 0,0 l/m 4,6 km/h (1 Bft) N-NO 15 0 min 0,0 UV-I 142 W/m 13,4 C 15,9 C 6,4 km/h (2 Bft)
18.10.2022 17:30 15,8 C 22,2 C 84 % 1028,2 hPa 0,0 l/m 3,8 km/h (1 Bft) N-NO 15 0 min 0,0 UV-I 68 W/m 13,1 C 15,8 C 6,4 km/h (2 Bft)
18.10.2022 17:33 15,7 C 19,4 C 84 % 1028,4 hPa 0,0 l/m 3,8 km/h (1 Bft) N-NO 13 0 min 0,0 UV-I 59 W/m 13,0 C 15,7 C 6,4 km/h (2 Bft)
18.10.2022 17:36 15,5 C 17,2 C 85 % 1028,3 hPa 0,0 l/m 3,6 km/h (1 Bft) N-NO 13 0 min 0,0 UV-I 43 W/m 13,0 C 15,5 C 4,8 km/h (1 Bft)
18.10.2022 17:39 15,3 C 15,6 C 85 % 1028,3 hPa 0,0 l/m 3,5 km/h (1 Bft) N-NO 13 0 min 0,0 UV-I 34 W/m 12,8 C 15,3 C 4,8 km/h (1 Bft)
18.10.2022 17:42 15,2 C 14,4 C 85 % 1028,4 hPa 0,0 l/m 2,4 km/h (1 Bft) N-NO 13 0 min 0,0 UV-I 29 W/m 12,7 C 15,2 C 4,8 km/h (1 Bft)
18.10.2022 17:45 15,1 C 13,9 C 85 % 1028,4 hPa 0,0 l/m 2,3 km/h (1 Bft) N-NO 13 0 min 0,0 UV-I 25 W/m 12,6 C 15,1 C 3,2 km/h (1 Bft)
18.10.2022 17:48 15,0 C 13,9 C 86 % 1028,4 hPa 0,0 l/m 0,9 km/h (0 Bft) N-NO 13 0 min 0,0 UV-I 22 W/m 12,7 C 15,0 C 3,2 km/h (1 Bft)
18.10.2022 17:51 14,8 C 13,3 C 86 % 1028,5 hPa 0,0 l/m 2,4 km/h (1 Bft) N-NO 13 0 min 0,0 UV-I 19 W/m 12,5 C 14,8 C 4,8 km/h (1 Bft)
18.10.2022 17:54 14,6 C 12,8 C 87 % 1028,4 hPa 0,0 l/m 4,3 km/h (1 Bft) N-NO 12 0 min 0,0 UV-I 18 W/m 12,5 C 14,6 C 6,4 km/h (2 Bft)
18.10.2022 17:57 14,6 C 12,8 C 87 % 1028,4 hPa 0,0 l/m 4,7 km/h (1 Bft) N 11 0 min 0,0 UV-I 19 W/m 12,5 C 14,6 C 6,4 km/h (2 Bft)
18.10.2022 18:00 14,4 C 12,8 C 87 % 1028,4 hPa 0,0 l/m 5,8 km/h (2 Bft) N 9 0 min 0,0 UV-I 25 W/m 12,3 C 14,4 C 8,0 km/h (2 Bft)
18.10.2022 18:03 14,3 C 12,8 C 88 % 1028,4 hPa 0,0 l/m 4,7 km/h (1 Bft) N 10 0 min 0,0 UV-I 21 W/m 12,3 C 14,3 C 6,4 km/h (2 Bft)
18.10.2022 18:06 14,2 C 12,8 C 88 % 1028,4 hPa 0,0 l/m 3,7 km/h (1 Bft) N 11 0 min 0,0 UV-I 16 W/m 12,2 C 14,2 C 4,8 km/h (1 Bft)
18.10.2022 18:09 14,2 C 12,8 C 89 % 1028,5 hPa 0,0 l/m 3,5 km/h (1 Bft) N 11 0 min 0,0 UV-I 16 W/m 12,4 C 14,2 C 4,8 km/h (1 Bft)
18.10.2022 18:12 13,9 C 12,2 C 89 % 1028,5 hPa 0,0 l/m 2,4 km/h (1 Bft) N 11 0 min 0,0 UV-I 17 W/m 12,1 C 13,9 C 3,2 km/h (1 Bft)
18.10.2022 18:15 13,8 C 12,2 C 89 % 1028,5 hPa 0,0 l/m 1,8 km/h (1 Bft) N 11 0 min 0,0 UV-I 19 W/m 12,0 C 13,8 C 3,2 km/h (1 Bft)
18.10.2022 18:18 13,7 C 12,2 C 90 % 1028,4 hPa 0,0 l/m 2,1 km/h (1 Bft) N 11 0 min 0,0 UV-I 16 W/m 12,1 C 13,7 C 3,2 km/h (1 Bft)
18.10.2022 18:21 13,6 C 12,2 C 90 % 1028,4 hPa 0,0 l/m 1,7 km/h (1 Bft) N 11 0 min 0,0 UV-I 12 W/m 12,0 C 13,6 C 3,2 km/h (1 Bft)
18.10.2022 18:24 13,6 C 12,2 C 90 % 1028,4 hPa 0,0 l/m 1,7 km/h (1 Bft) N 11 0 min 0,0 UV-I 8 W/m 12,0 C 13,6 C 3,2 km/h (1 Bft)
18.10.2022 18:27 13,5 C 11,7 C 91 % 1028,4 hPa 0,0 l/m 2,6 km/h (1 Bft) N 11 0 min 0,0 UV-I 5 W/m 12,1 C 13,5 C 4,8 km/h (1 Bft)
18.10.2022 18:30 13,4 C 11,7 C 91 % 1028,5 hPa 0,0 l/m 4,4 km/h (1 Bft) N 11 0 min 0,0 UV-I 4 W/m 12,0 C 13,4 C 6,4 km/h (2 Bft)
18.10.2022 18:33 13,4 C 11,7 C 91 % 1028,5 hPa 0,0 l/m 3,9 km/h (1 Bft) N 11 0 min 0,0 UV-I 0 W/m 12,0 C 13,4 C 6,4 km/h (2 Bft)
18.10.2022 18:36 13,5 C 11,7 C 91 % 1028,5 hPa 0,0 l/m 4,1 km/h (1 Bft) N 11 0 min 0,0 UV-I 0 W/m 12,1 C 13,5 C 6,4 km/h (2 Bft)
18.10.2022 18:39 13,4 C 11,7 C 92 % 1028,5 hPa 0,0 l/m 3,6 km/h (1 Bft) N 11 0 min 0,0 UV-I 0 W/m 12,1 C 13,4 C 4,8 km/h (1 Bft)
18.10.2022 18:42 13,5 C 11,7 C 92 % 1028,5 hPa 0,0 l/m 3,1 km/h (1 Bft) N 11 0 min 0,0 UV-I 0 W/m 12,2 C 13,5 C 4,8 km/h (1 Bft)
18.10.2022 18:45 13,4 C 11,7 C 92 % 1028,6 hPa 0,0 l/m 2,2 km/h (1 Bft) N 11 0 min 0,0 UV-I 0 W/m 12,1 C 13,4 C 4,8 km/h (1 Bft)
18.10.2022 18:48 13,3 C 11,7 C 91 % 1028,6 hPa 0,0 l/m 0,2 km/h (0 Bft) N 11 0 min 0,0 UV-I 0 W/m 11,9 C 13,3 C 1,6 km/h (1 Bft)
18.10.2022 18:51 13,1 C 11,1 C 91 % 1028,7 hPa 0,0 l/m 1,6 km/h (1 Bft) N 11 0 min 0,0 UV-I 0 W/m 11,7 C 13,1 C 3,2 km/h (1 Bft)
18.10.2022 18:54 12,9 C 11,1 C 92 % 1028,8 hPa 0,0 l/m 2,1 km/h (1 Bft) N 11 0 min 0,0 UV-I 0 W/m 11,6 C 12,9 C 3,2 km/h (1 Bft)
18.10.2022 18:57 12,9 C 11,1 C 92 % 1028,7 hPa 0,0 l/m 1,3 km/h (1 Bft) N 11 0 min 0,0 UV-I 0 W/m 11,6 C 12,9 C 3,2 km/h (1 Bft)
18.10.2022 19:00 12,9 C 11,1 C 92 % 1028,9 hPa 0,0 l/m 1,6 km/h (1 Bft) N 11 0 min 0,0 UV-I 0 W/m 11,6 C 12,9 C 3,2 km/h (1 Bft)
18.10.2022 19:03 12,8 C 10,6 C 92 % 1028,9 hPa 0,0 l/m 0,8 km/h (0 Bft) N 11 0 min 0,0 UV-I 0 W/m 11,5 C 12,8 C 1,6 km/h (1 Bft)
18.10.2022 19:06 12,7 C 10,6 C 92 % 1028,9 hPa 0,0 l/m 0,0 km/h (0 Bft) N 11 0 min 0,0 UV-I 0 W/m 11,4 C 12,7 C 0,0 km/h (0 Bft)
18.10.2022 19:09 12,6 C 10,6 C 92 % 1029,0 hPa 0,0 l/m 0,0 km/h (0 Bft) N 11 0 min 0,0 UV-I 0 W/m 11,3 C 12,6 C 0,0 km/h (0 Bft)
18.10.2022 19:12 12,7 C 10,6 C 93 % 1029,0 hPa 0,0 l/m 0,0 km/h (0 Bft) N 11 0 min 0,0 UV-I 0 W/m 11,6 C 12,7 C 1,6 km/h (1 Bft)
18.10.2022 19:15 12,7 C 10,6 C 92 % 1029,0 hPa 0,0 l/m 0,4 km/h (0 Bft) N 11 0 min 0,0 UV-I 0 W/m 11,4 C 12,7 C 3,2 km/h (1 Bft)
18.10.2022 19:18 12,7 C 10,6 C 93 % 1028,9 hPa 0,0 l/m 3,3 km/h (1 Bft) N 11 0 min 0,0 UV-I 0 W/m 11,6 C 12,7 C 4,8 km/h (1 Bft)
18.10.2022 19:21 12,6 C 10,0 C 92 % 1028,9 hPa 0,0 l/m 3,2 km/h (1 Bft) N 11 0 min 0,0 UV-I 0 W/m 11,3 C 12,6 C 4,8 km/h (1 Bft)
18.10.2022 19:24 12,4 C 10,0 C 93 % 1029,0 hPa 0,0 l/m 3,2 km/h (1 Bft) N 11 0 min 0,0 UV-I 0 W/m 11,3 C 12,4 C 4,8 km/h (1 Bft)
18.10.2022 19:27 12,4 C 10,0 C 93 % 1028,9 hPa 0,0 l/m 1,7 km/h (1 Bft) N 11 0 min 0,0 UV-I 0 W/m 11,3 C 12,4 C 3,2 km/h (1 Bft)
18.10.2022 19:30 12,4 C 10,6 C 93 % 1029,0 hPa 0,0 l/m 2,9 km/h (1 Bft) N 11 0 min 0,0 UV-I 0 W/m 11,3 C 12,4 C 4,8 km/h (1 Bft)
18.10.2022 19:33 12,3 C 10,6 C 93 % 1029,0 hPa 0,0 l/m 2,8 km/h (1 Bft) N 11 0 min 0,0 UV-I 0 W/m 11,2 C 12,3 C 4,8 km/h (1 Bft)
18.10.2022 19:36 12,2 C 10,6 C 93 % 1029,0 hPa 0,0 l/m 2,0 km/h (1 Bft) N 11 0 min 0,0 UV-I 0 W/m 11,1 C 12,2 C 4,8 km/h (1 Bft)
18.10.2022 19:39 11,9 C 10,6 C 92 % 1029,1 hPa 0,0 l/m 0,7 km/h (0 Bft) N 11 0 min 0,0 UV-I 0 W/m 10,6 C 11,9 C 3,2 km/h (1 Bft)
18.10.2022 19:42 11,8 C 10,6 C 93 % 1029,2 hPa 0,0 l/m 0,0 km/h (0 Bft) N 11 0 min 0,0 UV-I 0 W/m 10,7 C 11,8 C 1,6 km/h (1 Bft)
18.10.2022 19:45 11,9 C 10,6 C 93 % 1029,2 hPa 0,0 l/m 0,4 km/h (0 Bft) N 11 0 min 0,0 UV-I 0 W/m 10,8 C 11,9 C 1,6 km/h (1 Bft)
18.10.2022 19:48 11,9 C 11,1 C 93 % 1029,2 hPa 0,0 l/m 0,0 km/h (0 Bft) N 11 0 min 0,0 UV-I 0 W/m 10,8 C 11,9 C 0,0 km/h (0 Bft)
18.10.2022 19:51 12,1 C 11,1 C 94 % 1029,2 hPa 0,0 l/m 1,3 km/h (1 Bft) N 11 0 min 0,0 UV-I 0 W/m 11,2 C 12,1 C 3,2 km/h (1 Bft)
18.10.2022 19:54 12,3 C 11,1 C 94 % 1029,3 hPa 0,0 l/m 3,7 km/h (1 Bft) N 5 0 min 0,0 UV-I 0 W/m 11,4 C 12,3 C 6,4 km/h (2 Bft)
18.10.2022 19:57 12,6 C 11,7 C 94 % 1029,3 hPa 0,0 l/m 5,1 km/h (1 Bft) N 350 0 min 0,0 UV-I 0 W/m 11,7 C 12,6 C 6,4 km/h (2 Bft)
18.10.2022 20:00 12,8 C 11,7 C 94 % 1029,4 hPa 0,0 l/m 3,8 km/h (1 Bft) N 360 0 min 0,0 UV-I 0 W/m 11,9 C 12,8 C 6,4 km/h (2 Bft)
18.10.2022 20:03 12,8 C 12,2 C 94 % 1029,4 hPa 0,0 l/m 3,7 km/h (1 Bft) N 10 0 min 0,0 UV-I 0 W/m 11,9 C 12,8 C 6,4 km/h (2 Bft)
18.10.2022 20:06 12,6 C 11,7 C 93 % 1029,4 hPa 0,0 l/m 1,9 km/h (1 Bft) N 10 0 min 0,0 UV-I 0 W/m 11,5 C 12,6 C 4,8 km/h (1 Bft)
18.10.2022 20:09 12,5 C 11,7 C 93 % 1029,3 hPa 0,0 l/m 2,0 km/h (1 Bft) N 10 0 min 0,0 UV-I 0 W/m 11,4 C 12,5 C 3,2 km/h (1 Bft)
18.10.2022 20:12 12,5 C 11,7 C 93 % 1029,4 hPa 0,0 l/m 3,9 km/h (1 Bft) N 11 0 min 0,0 UV-I 0 W/m 11,4 C 12,5 C 6,4 km/h (2 Bft)
18.10.2022 20:15 12,7 C 12,2 C 94 % 1029,5 hPa 0,0 l/m 3,8 km/h (1 Bft) N 11 0 min 0,0 UV-I 0 W/m 11,8 C 12,7 C 4,8 km/h (1 Bft)
18.10.2022 20:18 12,7 C 12,2 C 94 % 1029,4 hPa 0,0 l/m 4,1 km/h (1 Bft) N-NO 12 0 min 0,0 UV-I 0 W/m 11,8 C 12,7 C 6,4 km/h (2 Bft)
18.10.2022 20:21 12,8 C 12,2 C 94 % 1029,5 hPa 0,0 l/m 3,4 km/h (1 Bft) N-NO 30 0 min 0,0 UV-I 0 W/m 11,9 C 12,8 C 6,4 km/h (2 Bft)
18.10.2022 20:24 12,7 C 12,2 C 94 % 1029,4 hPa 0,0 l/m 2,4 km/h (1 Bft) N-NO 30 0 min 0,0 UV-I 0 W/m 11,8 C 12,7 C 4,8 km/h (1 Bft)
18.10.2022 20:27 12,5 C 12,2 C 93 % 1029,5 hPa 0,0 l/m 1,9 km/h (1 Bft) N-NO 30 0 min 0,0 UV-I 0 W/m 11,4 C 12,5 C 3,2 km/h (1 Bft)
18.10.2022 20:30 12,6 C 12,2 C 94 % 1029,5 hPa 0,0 l/m 2,9 km/h (1 Bft) N-NO 26 0 min 0,0 UV-I 0 W/m 11,7 C 12,6 C 6,4 km/h (2 Bft)
18.10.2022 20:33 12,7 C 12,2 C 94 % 1029,5 hPa 0,0 l/m 6,0 km/h (2 Bft) NO 44 0 min 0,0 UV-I 0 W/m 11,8 C 12,7 C 12,9 km/h (3 Bft)
18.10.2022 20:36 12,8 C 12,2 C 94 % 1029,4 hPa 0,0 l/m 4,8 km/h (1 Bft) NO 45 0 min 0,0 UV-I 0 W/m 11,9 C 12,8 C 8,0 km/h (2 Bft)
18.10.2022 20:39 12,8 C 12,2 C 94 % 1029,4 hPa 0,0 l/m 4,4 km/h (1 Bft) NO 44 0 min 0,0 UV-I 0 W/m 11,9 C 12,8 C 6,4 km/h (2 Bft)
18.10.2022 20:42 12,8 C 12,2 C 94 % 1029,3 hPa 0,0 l/m 5,5 km/h (1 Bft) N-NO 29 0 min 0,0 UV-I 0 W/m 11,9 C 12,8 C 8,0 km/h (2 Bft)
18.10.2022 20:45 12,8 C 12,2 C 94 % 1029,3 hPa 0,0 l/m 5,6 km/h (1 Bft) N-NO 28 0 min 0,0 UV-I 0 W/m 11,9 C 12,8 C 8,0 km/h (2 Bft)
18.10.2022 20:48 12,8 C 12,8 C 94 % 1029,5 hPa 0,0 l/m 5,4 km/h (1 Bft) N-NO 28 0 min 0,0 UV-I 0 W/m 11,9 C 12,8 C 8,0 km/h (2 Bft)
18.10.2022 20:51 12,7 C 12,2 C 94 % 1029,4 hPa 0,0 l/m 5,8 km/h (2 Bft) N-NO 29 0 min 0,0 UV-I 0 W/m 11,8 C 12,7 C 8,0 km/h (2 Bft)
18.10.2022 20:54 12,7 C 12,2 C 94 % 1029,3 hPa 0,0 l/m 4,4 km/h (1 Bft) N-NO 30 0 min 0,0 UV-I 0 W/m 11,8 C 12,7 C 8,0 km/h (2 Bft)
18.10.2022 20:57 12,6 C 12,2 C 93 % 1029,3 hPa 0,0 l/m 3,6 km/h (1 Bft) N-NO 31 0 min 0,0 UV-I 0 W/m 11,5 C 12,6 C 6,4 km/h (2 Bft)
18.10.2022 21:00 12,4 C 11,7 C 93 % 1029,4 hPa 0,0 l/m 6,0 km/h (2 Bft) NO 39 0 min 0,0 UV-I 0 W/m 11,3 C 12,4 C 8,0 km/h (2 Bft)
18.10.2022 21:03 12,3 C 11,7 C 93 % 1029,4 hPa 0,0 l/m 7,8 km/h (2 Bft) N 11 0 min 0,0 UV-I 0 W/m 11,2 C 11,4 C 12,9 km/h (3 Bft)
18.10.2022 21:06 12,3 C 11,7 C 93 % 1029,4 hPa 0,0 l/m 7,8 km/h (2 Bft) N 350 0 min 0,0 UV-I 0 W/m 11,2 C 11,4 C 12,9 km/h (3 Bft)
18.10.2022 21:09 12,4 C 11,7 C 93 % 1029,5 hPa 0,0 l/m 7,0 km/h (2 Bft) N 9 0 min 0,0 UV-I 0 W/m 11,3 C 12,0 C 9,7 km/h (2 Bft)
18.10.2022 21:12 12,4 C 12,2 C 93 % 1029,4 hPa 0,0 l/m 6,7 km/h (2 Bft) N-NO 17 0 min 0,0 UV-I 0 W/m 11,3 C 12,2 C 11,3 km/h (2 Bft)
18.10.2022 21:15 12,5 C 12,2 C 93 % 1029,5 hPa 0,0 l/m 6,1 km/h (2 Bft) N-NO 19 0 min 0,0 UV-I 0 W/m 11,4 C 12,5 C 11,3 km/h (2 Bft)
18.10.2022 21:18 12,4 C 12,2 C 93 % 1029,5 hPa 0,0 l/m 6,2 km/h (2 Bft) N 9 0 min 0,0 UV-I 0 W/m 11,3 C 12,4 C 12,9 km/h (3 Bft)
18.10.2022 21:21 12,4 C 12,2 C 92 % 1029,4 hPa 0,0 l/m 6,1 km/h (2 Bft) N-NO 28 0 min 0,0 UV-I 0 W/m 11,1 C 12,4 C 8,0 km/h (2 Bft)
18.10.2022 21:24 12,4 C 12,2 C 92 % 1029,5 hPa 0,0 l/m 6,6 km/h (2 Bft) N-NO 29 0 min 0,0 UV-I 0 W/m 11,1 C 12,3 C 9,7 km/h (2 Bft)
18.10.2022 21:27 12,4 C 12,2 C 92 % 1029,4 hPa 0,0 l/m 5,7 km/h (1 Bft) N 9 0 min 0,0 UV-I 0 W/m 11,1 C 12,4 C 9,7 km/h (2 Bft)
18.10.2022 21:30 12,4 C 11,7 C 92 % 1029,4 hPa 0,0 l/m 6,0 km/h (2 Bft) N 360 0 min 0,0 UV-I 0 W/m 11,1 C 12,4 C 8,0 km/h (2 Bft)
18.10.2022 21:33 12,5 C 12,2 C 92 % 1029,4 hPa 0,0 l/m 5,0 km/h (1 Bft) N 360 0 min 0,0 UV-I 0 W/m 11,2 C 12,5 C 9,7 km/h (2 Bft)
18.10.2022 21:36 12,4 C 12,2 C 92 % 1029,4 hPa 0,0 l/m 7,4 km/h (2 Bft) N-NO 29 0 min 0,0 UV-I 0 W/m 11,1 C 11,7 C 12,9 km/h (3 Bft)
18.10.2022 21:39 12,5 C 12,2 C 92 % 1029,4 hPa 0,0 l/m 4,8 km/h (1 Bft) NO 36 0 min 0,0 UV-I 0 W/m 11,2 C 12,5 C 8,0 km/h (2 Bft)
18.10.2022 21:42 12,5 C 12,2 C 92 % 1029,3 hPa 0,0 l/m 5,4 km/h (1 Bft) O-NO 61 0 min 0,0 UV-I 0 W/m 11,2 C 12,5 C 9,7 km/h (2 Bft)
18.10.2022 21:45 12,4 C 12,2 C 91 % 1029,4 hPa 0,0 l/m 6,5 km/h (2 Bft) N-NO 20 0 min 0,0 UV-I 0 W/m 11,0 C 12,4 C 8,0 km/h (2 Bft)
18.10.2022 21:48 12,4 C 11,7 C 91 % 1029,4 hPa 0,0 l/m 5,5 km/h (1 Bft) N-NO 19 0 min 0,0 UV-I 0 W/m 11,0 C 12,4 C 8,0 km/h (2 Bft)
18.10.2022 21:51 12,4 C 12,2 C 91 % 1029,3 hPa 0,0 l/m 5,9 km/h (2 Bft) N-NO 15 0 min 0,0 UV-I 0 W/m 11,0 C 12,4 C 8,0 km/h (2 Bft)
18.10.2022 21:54 12,4 C 12,2 C 91 % 1029,2 hPa 0,0 l/m 5,6 km/h (1 Bft) N-NO 22 0 min 0,0 UV-I 0 W/m 11,0 C 12,4 C 8,0 km/h (2 Bft)
18.10.2022 21:57 12,4 C 12,2 C 91 % 1029,3 hPa 0,0 l/m 4,6 km/h (1 Bft) N-NO 23 0 min 0,0 UV-I 0 W/m 11,0 C 12,4 C 6,4 km/h (2 Bft)
18.10.2022 22:00 12,4 C 12,2 C 91 % 1029,2 hPa 0,0 l/m 3,8 km/h (1 Bft) N-NO 22 0 min 0,0 UV-I 0 W/m 11,0 C 12,4 C 6,4 km/h (2 Bft)
18.10.2022 22:03 12,4 C 12,2 C 91 % 1029,2 hPa 0,0 l/m 3,5 km/h (1 Bft) N-NO 22 0 min 0,0 UV-I 0 W/m 11,0 C 12,4 C 6,4 km/h (2 Bft)
18.10.2022 22:06 12,3 C 12,2 C 91 % 1029,3 hPa 0,0 l/m 4,7 km/h (1 Bft) NO 34 0 min 0,0 UV-I 0 W/m 10,9 C 12,3 C 11,3 km/h (2 Bft)
18.10.2022 22:09 12,3 C 11,7 C 91 % 1029,3 hPa 0,0 l/m 6,4 km/h (2 Bft) NO 34 0 min 0,0 UV-I 0 W/m 10,9 C 12,3 C 9,7 km/h (2 Bft)
18.10.2022 22:12 12,3 C 11,7 C 91 % 1029,3 hPa 0,0 l/m 3,1 km/h (1 Bft) NO 34 0 min 0,0 UV-I 0 W/m 10,9 C 12,3 C 6,4 km/h (2 Bft)
18.10.2022 22:15 12,3 C 11,7 C 91 % 1029,3 hPa 0,0 l/m 6,9 km/h (2 Bft) NO 36 0 min 0,0 UV-I 0 W/m 10,9 C 12,0 C 11,3 km/h (2 Bft)
18.10.2022 22:18 12,3 C 11,7 C 91 % 1029,3 hPa 0,0 l/m 7,1 km/h (2 Bft) N 9 0 min 0,0 UV-I 0 W/m 10,9 C 11,8 C 9,7 km/h (2 Bft)
18.10.2022 22:21 12,2 C 11,7 C 91 % 1029,3 hPa 0,0 l/m 6,7 km/h (2 Bft) N-NO 27 0 min 0,0 UV-I 0 W/m 10,8 C 12,0 C 9,7 km/h (2 Bft)
18.10.2022 22:24 12,2 C 11,7 C 91 % 1029,2 hPa 0,0 l/m 6,2 km/h (2 Bft) N-NO 20 0 min 0,0 UV-I 0 W/m 10,8 C 12,2 C 11,3 km/h (2 Bft)
18.10.2022 22:27 12,2 C 11,7 C 91 % 1029,3 hPa 0,0 l/m 6,4 km/h (2 Bft) N-NO 29 0 min 0,0 UV-I 0 W/m 10,8 C 12,2 C 11,3 km/h (2 Bft)
18.10.2022 22:30 12,1 C 11,7 C 91 % 1029,3 hPa 0,0 l/m 7,3 km/h (2 Bft) N-NO 26 0 min 0,0 UV-I 0 W/m 10,7 C 11,5 C 11,3 km/h (2 Bft)
18.10.2022 22:33 12,1 C 11,7 C 91 % 1029,3 hPa 0,0 l/m 7,6 km/h (2 Bft) N-NO 19 0 min 0,0 UV-I 0 W/m 10,7 C 11,3 C 14,5 km/h (3 Bft)
18.10.2022 22:36 12,1 C 11,7 C 91 % 1029,4 hPa 0,0 l/m 7,9 km/h (2 Bft) N-NO 22 0 min 0,0 UV-I 0 W/m 10,7 C 11,1 C 16,1 km/h (3 Bft)
18.10.2022 22:39 12,1 C 11,7 C 91 % 1029,3 hPa 0,0 l/m 7,8 km/h (2 Bft) N 360 0 min 0,0 UV-I 0 W/m 10,7 C 11,2 C 12,9 km/h (3 Bft)
18.10.2022 22:42 11,9 C 11,7 C 91 % 1029,4 hPa 0,0 l/m 8,0 km/h (2 Bft) N-NO 25 0 min 0,0 UV-I 0 W/m 10,5 C 10,8 C 11,3 km/h (2 Bft)
18.10.2022 22:45 11,9 C 11,7 C 91 % 1029,4 hPa 0,0 l/m 6,0 km/h (2 Bft) N-NO 29 0 min 0,0 UV-I 0 W/m 10,5 C 11,9 C 9,7 km/h (2 Bft)
18.10.2022 22:48 11,9 C 11,7 C 91 % 1029,3 hPa 0,0 l/m 5,8 km/h (2 Bft) N-NO 17 0 min 0,0 UV-I 0 W/m 10,5 C 11,9 C 12,9 km/h (3 Bft)
18.10.2022 22:51 11,9 C 11,7 C 91 % 1029,4 hPa 0,0 l/m 7,1 km/h (2 Bft) NO 41 0 min 0,0 UV-I 0 W/m 10,5 C 11,4 C 12,9 km/h (3 Bft)
18.10.2022 22:54 11,9 C 11,7 C 91 % 1029,3 hPa 0,0 l/m 5,4 km/h (1 Bft) N-NO 28 0 min 0,0 UV-I 0 W/m 10,5 C 11,9 C 8,0 km/h (2 Bft)
18.10.2022 22:57 12,0 C 11,7 C 91 % 1029,3 hPa 0,0 l/m 9,8 km/h (2 Bft) N-NO 22 0 min 0,0 UV-I 0 W/m 10,6 C 9,9 C 12,9 km/h (3 Bft)
18.10.2022 23:00 11,9 C 11,7 C 91 % 1029,3 hPa 0,0 l/m 7,0 km/h (2 Bft) N-NO 29 0 min 0,0 UV-I 0 W/m 10,5 C 11,5 C 12,9 km/h (3 Bft)
18.10.2022 23:03 12,0 C 11,7 C 91 % 1029,3 hPa 0,0 l/m 4,2 km/h (1 Bft) N-NO 26 0 min 0,0 UV-I 0 W/m 10,6 C 12,0 C 6,4 km/h (2 Bft)
18.10.2022 23:06 11,9 C 11,7 C 91 % 1029,3 hPa 0,0 l/m 2,5 km/h (1 Bft) N-NO 26 0 min 0,0 UV-I 0 W/m 10,5 C 11,9 C 4,8 km/h (1 Bft)
18.10.2022 23:09 11,9 C 11,7 C 91 % 1029,3 hPa 0,0 l/m 4,1 km/h (1 Bft) N-NO 28 0 min 0,0 UV-I 0 W/m 10,5 C 11,9 C 6,4 km/h (2 Bft)
18.10.2022 23:12 11,9 C 11,7 C 92 % 1029,3 hPa 0,0 l/m 4,4 km/h (1 Bft) N-NO 30 0 min 0,0 UV-I 0 W/m 10,6 C 11,9 C 6,4 km/h (2 Bft)
18.10.2022 23:15 11,9 C 11,7 C 92 % 1029,3 hPa 0,0 l/m 7,2 km/h (2 Bft) NO 38 0 min 0,0 UV-I 0 W/m 10,6 C 11,4 C 9,7 km/h (2 Bft)
18.10.2022 23:18 12,0 C 11,7 C 92 % 1029,3 hPa 0,0 l/m 4,9 km/h (1 Bft) NO 44 0 min 0,0 UV-I 0 W/m 10,7 C 12,0 C 8,0 km/h (2 Bft)
18.10.2022 23:21 11,9 C 11,7 C 92 % 1029,4 hPa 0,0 l/m 5,9 km/h (2 Bft) NO 34 0 min 0,0 UV-I 0 W/m 10,6 C 11,9 C 9,7 km/h (2 Bft)
18.10.2022 23:24 11,9 C 11,7 C 91 % 1029,3 hPa 0,0 l/m 4,5 km/h (1 Bft) NO 34 0 min 0,0 UV-I 0 W/m 10,5 C 11,9 C 6,4 km/h (2 Bft)
18.10.2022 23:27 11,8 C 10,6 C 91 % 1029,4 hPa 0,0 l/m 5,3 km/h (1 Bft) N-NO 24 0 min 0,0 UV-I 0 W/m 10,4 C 11,8 C 8,0 km/h (2 Bft)
18.10.2022 23:30 11,5 C 10,0 C 91 % 1029,3 hPa 0,0 l/m 7,7 km/h (2 Bft) NO 38 0 min 0,0 UV-I 0 W/m 10,1 C 10,6 C 14,5 km/h (3 Bft)
18.10.2022 23:33 11,4 C 10,0 C 91 % 1029,2 hPa 0,0 l/m 7,2 km/h (2 Bft) N-NO 25 0 min 0,0 UV-I 0 W/m 10,0 C 10,9 C 9,7 km/h (2 Bft)
18.10.2022 23:36 11,3 C 9,4 C 91 % 1029,3 hPa 0,0 l/m 6,6 km/h (2 Bft) N 5 0 min 0,0 UV-I 0 W/m 9,9 C 11,2 C 12,9 km/h (3 Bft)
18.10.2022 23:39 11,2 C 9,4 C 91 % 1029,3 hPa 0,0 l/m 4,7 km/h (1 Bft) N-NO 19 0 min 0,0 UV-I 0 W/m 9,8 C 11,2 C 9,7 km/h (2 Bft)
18.10.2022 23:42 11,1 C 9,4 C 91 % 1029,2 hPa 0,0 l/m 5,1 km/h (1 Bft) N-NO 21 0 min 0,0 UV-I 0 W/m 9,7 C 11,1 C 8,0 km/h (2 Bft)
18.10.2022 23:45 11,0 C 9,4 C 91 % 1029,3 hPa 0,0 l/m 3,6 km/h (1 Bft) N-NO 23 0 min 0,0 UV-I 0 W/m 9,6 C 11,0 C 4,8 km/h (1 Bft)
18.10.2022 23:48 11,0 C 9,4 C 91 % 1029,3 hPa 0,0 l/m 3,1 km/h (1 Bft) N-NO 25 0 min 0,0 UV-I 0 W/m 9,6 C 11,0 C 6,4 km/h (2 Bft)
18.10.2022 23:51 11,0 C 10,0 C 92 % 1029,2 hPa 0,0 l/m 3,2 km/h (1 Bft) N-NO 25 0 min 0,0 UV-I 0 W/m 9,8 C 11,0 C 6,4 km/h (2 Bft)
18.10.2022 23:54 10,9 C 10,0 C 92 % 1029,2 hPa 0,0 l/m 3,5 km/h (1 Bft) N-NO 25 0 min 0,0 UV-I 0 W/m 9,7 C 10,9 C 4,8 km/h (1 Bft)
18.10.2022 23:57 10,9 C 10,0 C 92 % 1029,2 hPa 0,0 l/m 2,0 km/h (1 Bft) N-NO 26 0 min 0,0 UV-I 0 W/m 9,7 C 10,9 C 4,8 km/h (1 Bft)
_ Min-Zeit 23:48 23:36 16:15 04:36 - 00:09 - - - - - 23:45 22:57 00:12
Minimum _ 10,9 C 9,4 C 81 % 1025,8 hPa - 0,0 km/h (0 Bft) - - - - - 9,6 C 9,9 C 0,0 km/h (0 Bft)
_ Max-Zeit 16:12 16:15 02:27 20:15 04:03 14:48 - - 12:33 12:33 12:36 15:42 16:12 14:39
Maximum _ 16,9 C 31,7 C 95 % 1029,5 hPa 0,6 l/m 9,9 km/h
N (2 Bft)
- - 3 min 2,2 UV-I 523 W/m 14,1 C 16,8 C 16,1 km/h
N-NW (3 Bft)
Durchschnitt _ 13,9 C 14,8 C 92 % 1027,8 hPa #10,4 l/m 2,7 km/h (1 Bft) N - #45 min. 1,0 UV-I 138 W/m 12,6 C 13,9 C 4,8 km/h (1 Bft)